EW3712 Weather Reports


time (UTC)temp
C
wind
direction
speed
KPH
gust
KPH
rain 1hr
cm
rain 24hr
cm
rain mn
cm
humidity
%
barometer
mb
20260906231102 24 146 6.4 57.9 0.00 0.00 0.00 26 1018.0
20260906231002 24 146 4.8 57.9 0.00 0.00 0.00 27 1018.0
20260906230802 24 146 3.2 57.9 0.00 0.00 0.00 26 1018.1
20260906230702 25 151 1.6 57.9 0.00 0.00 0.00 26 1018.4
20260906230602 25 158 1.6 41.8 0.00 0.00 0.00 25 1018.0
20260906230502 25 161 1.6 37.0 0.00 0.00 0.00 25 1017.8
20260906230403 25 178 1.6 19.3 0.00 0.00 0.00 27 1018.1
20260906230202 25 229 1.6 17.7 0.00 0.00 0.00 27 1017.9
20260906230002 25 229 1.6 17.7 0.00 0.00 0.00 27 1018.1
20260906225903 25 229 1.6 17.7 0.00 0.00 0.00 27 1018.1
20260906225802 25 229 1.6 17.7 0.00 0.00 0.00 27 1018.1
20260906225703 25 204 3.2 17.7 0.00 0.00 0.00 26 1018.0
20260906225602 25 160 3.2 9.7 0.00 0.00 0.00 26 1018.0
20260906225502 25 161 3.2 9.7 0.00 0.00 0.00 26 1018.0
20260906225403 25 160 3.2 9.7 0.00 0.00 0.00 26 1017.9
20260906225306 25 162 3.2 11.3 0.00 0.00 0.00 26 1017.8
20260906225102 25 169 4.8 12.9 0.00 0.00 0.00 25 1017.9
20260906225003 25 171 4.8 12.9 0.00 0.00 0.00 25 1017.8
20260906224902 25 170 4.8 12.9 0.00 0.00 0.00 25 1017.8
20260906224802 25 170 6.4 12.9 0.00 0.00 0.00 25 1017.8
20260906224702 25 168 6.4 12.9 0.00 0.00 0.00 25 1017.8
20260906224602 25 166 6.4 12.9 0.00 0.00 0.00 25 1017.8
20260906224502 25 164 6.4 14.5 0.00 0.00 0.00 25 1017.7
20260906224402 25 165 6.4 14.5 0.00 0.00 0.00 25 1017.8
20260906224302 25 168 6.4 17.7 0.00 0.00 0.00 25 1017.8
20260906224202 25 169 6.4 17.7 0.00 0.00 0.00 25 1017.8
20260906224002 25 170 6.4 17.7 0.00 0.00 0.00 25 1017.7
20260906223902 25 172 6.4 17.7 0.00 0.00 0.00 25 1017.7
20260906223802 25 172 6.4 17.7 0.00 0.00 0.00 25 1017.8
20260906223702 25 173 4.8 17.7 0.00 0.00 0.00 25 1017.8
20260906223602 25 175 4.8 17.7 0.00 0.00 0.00 25 1017.8
20260906223502 25 181 3.2 17.7 0.00 0.00 0.00 25 1017.8
20260906223402 25 182 3.2 17.7 0.00 0.00 0.00 24 1017.7
20260906223302 25 182 3.2 16.1 0.00 0.00 0.00 24 1017.7
20260906223202 26 182 1.6 16.1 0.00 0.00 0.00 24 1017.7
20260906223102 26 190 1.6 14.5 0.00 0.00 0.00 24 1017.7
20260906223002 26 189 1.6 14.5 0.00 0.00 0.00 25 1017.8
20260906222902 26 190 1.6 14.5 0.00 0.00 0.00 24 1017.7
20260906222803 26 204 1.6 12.9 0.00 0.00 0.00 24 1017.7
20260906222702 26 228 1.6 12.9 0.00 0.00 0.00 24 1017.7
20260906222502 26 224 1.6 12.9 0.00 0.00 0.00 24 1017.7
20260906222403 26 225 1.6 12.9 0.00 0.00 0.00 24 1017.6
20260906222305 26 217 1.6 12.9 0.00 0.00 0.00 24 1017.6
20260906222102 26 189 1.6 11.3 0.00 0.00 0.00 24 1017.6
20260906222002 26 189 1.6 11.3 0.00 0.00 0.00 24 1017.6
20260906221902 26 190 0.0 11.3 0.00 0.00 0.00 24 1017.5
20260906221802 26 197 0.0 12.9 0.00 0.00 0.00 24 1017.5
20260906221703 26 197 0.0 12.9 0.00 0.00 0.00 24 1017.5
20260906221602 26 200 0.0 12.9 0.00 0.00 0.00 24 1017.5
20260906221502 26 200 0.0 12.9 0.00 0.00 0.00 25 1017.5
20260906221402 26 0 0.0 12.9 0.00 0.00 0.00 24 1017.5
20260906221302 26 0 0.0 12.9 0.00 0.00 0.00 24 1017.6
20260906221202 26 0 0.0 12.9 0.00 0.00 0.00 24 1017.6
20260906221103 26 0 0.0 12.9 0.00 0.00 0.00 24 1017.6
20260906221002 26 246 0.0 12.9 0.00 0.00 0.00 24 1017.6
20260906220902 26 246 0.0 12.9 0.00 0.00 0.00 25 1017.6
20260906220802 26 0 0.0 0.0 0.00 0.00 0.00 24 1017.5
20260906220702 26 0 0.0 0.0 0.00 0.00 0.00 24 1017.5
20260906220603 26 0 1.6 0.0 0.00 0.00 0.00 25 1017.6
20260906220302 26 206 1.6 9.7 0.00 0.00 0.00 24 1017.5
20260906220202 26 206 3.2 9.7 0.00 0.00 0.00 24 1017.5
20260906220002 26 206 4.8 9.7 0.00 0.00 0.00 24 1017.5
20260906215903 26 193 4.8 11.3 0.00 0.00 0.00 24 1017.5
20260906215802 26 184 6.4 12.9 0.00 0.00 0.00 24 1017.6
20260906215702 26 177 6.4 16.1 0.00 0.00 0.00 24 1017.6
20260906215602 26 177 6.4 16.1 0.00 0.00 0.00 24 1017.6
20260906215502 26 176 6.4 16.1 0.00 0.00 0.00 24 1017.6
20260906215402 26 176 6.4 16.1 0.00 0.00 0.00 24 1017.6
20260906215306 26 177 8.0 16.1 0.00 0.00 0.00 24 1017.6
20260906215202 26 179 8.0 19.3 0.00 0.00 0.00 24 1017.6
20260906215102 26 179 8.0 19.3 0.00 0.00 0.00 24 1017.6
20260906214902 26 177 8.0 19.3 0.00 0.00 0.00 24 1017.6
20260906214702 26 179 8.0 19.3 0.00 0.00 0.00 24 1017.7
20260906214602 26 177 8.0 19.3 0.00 0.00 0.00 23 1017.7
20260906214402 26 179 9.7 19.3 0.00 0.00 0.00 24 1017.8
20260906214303 26 178 9.7 19.3 0.00 0.00 0.00 24 1017.7
20260906214202 26 179 11.3 16.1 0.00 0.00 0.00 24 1017.8
20260906214102 26 182 11.3 25.7 0.00 0.00 0.00 24 1017.8
20260906214003 26 184 12.9 25.7 0.00 0.00 0.00 24 1017.8
20260906213902 26 183 12.9 25.7 0.00 0.00 0.00 24 1017.8
20260906213802 26 182 12.9 25.7 0.00 0.00 0.00 24 1017.6
20260906213703 26 182 12.9 25.7 0.00 0.00 0.00 24 1017.6
20260906213602 26 183 12.9 25.7 0.00 0.00 0.00 24 1017.7
20260906213502 26 183 12.9 25.7 0.00 0.00 0.00 24 1017.7
20260906213402 26 184 12.9 25.7 0.00 0.00 0.00 24 1017.7
20260906213303 26 185 12.9 25.7 0.00 0.00 0.00 24 1017.8
20260906213202 26 185 11.3 25.7 0.00 0.00 0.00 24 1017.7
20260906213102 26 183 11.3 25.7 0.00 0.00 0.00 24 1017.7
20260906213002 26 182 9.7 25.7 0.00 0.00 0.00 24 1017.8
20260906212802 26 181 9.7 25.7 0.00 0.00 0.00 24 1017.8
20260906212702 26 181 8.0 25.7 0.00 0.00 0.00 24 1017.8
20260906212603 26 179 8.0 25.7 0.00 0.00 0.00 24 1017.9
20260906212502 26 179 8.0 25.7 0.00 0.00 0.00 24 1017.9
20260906212402 26 176 8.0 25.7 0.00 0.00 0.00 24 1017.9
20260906212306 26 174 8.0 25.7 0.00 0.00 0.00 24 1017.9
20260906212102 26 174 8.0 16.1 0.00 0.00 0.00 24 1017.9
20260906212002 26 177 9.7 17.7 0.00 0.00 0.00 24 1017.9
20260906211902 26 178 9.7 24.1 0.00 0.00 0.00 24 1017.9
20260906211802 26 178 9.7 24.1 0.00 0.00 0.00 24 1017.9
20260906211702 26 181 9.7 24.1 0.00 0.00 0.00 24 1017.8
20260906211602 26 181 9.7 24.1 0.00 0.00 0.00 24 1017.8
20260906211302 26 178 9.7 24.1 0.00 0.00 0.00 24 1017.9
20260906211203 26 177 9.7 24.1 0.00 0.00 0.00 23 1017.7
20260906211102 26 175 8.0 24.1 0.00 0.00 0.00 23 1017.7
20260906211003 26 174 8.0 24.1 0.00 0.00 0.00 23 1017.7
20260906210902 26 175 8.0 24.1 0.00 0.00 0.00 23 1017.8
20260906210802 26 174 8.0 24.1 0.00 0.00 0.00 23 1017.8
20260906210602 26 179 6.4 24.1 0.00 0.00 0.00 23 1017.7
20260906210302 26 183 6.4 24.1 0.00 0.00 0.00 23 1017.7
20260906210202 26 184 6.4 24.1 0.00 0.00 0.00 23 1017.7
20260906210003 27 182 6.4 22.5 0.00 0.00 0.00 23 1017.8
20260906205802 27 178 6.4 22.5 0.00 0.00 0.00 23 1017.9
20260906205703 27 171 6.4 22.5 0.00 0.00 0.00 23 1017.8
20260906205602 27 173 6.4 22.5 0.00 0.00 0.00 23 1017.9
20260906205403 27 172 4.8 22.5 0.00 0.00 0.00 23 1017.9
20260906205306 27 175 4.8 22.5 0.00 0.00 0.00 23 1017.9
20260906205202 27 181 4.8 22.5 0.00 0.00 0.00 23 1017.9
20260906205103 27 183 4.8 22.5 0.00 0.00 0.00 23 1017.9
20260906205002 27 187 6.4 20.9 0.00 0.00 0.00 23 1017.9
20260906204902 27 188 6.4 16.1 0.00 0.00 0.00 24 1017.9
20260906204802 27 197 6.4 16.1 0.00 0.00 0.00 23 1017.7
20260906204702 26 194 8.0 16.1 0.00 0.00 0.00 24 1017.9
20260906204602 26 194 8.0 16.1 0.00 0.00 0.00 24 1017.9
20260906204402 26 197 9.7 16.1 0.00 0.00 0.00 24 1017.8
20260906204302 26 194 9.7 25.7 0.00 0.00 0.00 24 1017.9
20260906204202 26 186 9.7 27.4 0.00 0.00 0.00 24 1017.9
20260906204102 26 187 9.7 27.4 0.00 0.00 0.00 24 1017.9
20260906204002 26 185 9.7 27.4 0.00 0.00 0.00 24 1017.9
20260906203903 26 185 9.7 27.4 0.00 0.00 0.00 24 1017.9
20260906203702 26 185 9.7 27.4 0.00 0.00 0.00 24 1017.9
20260906203602 26 186 9.7 27.4 0.00 0.00 0.00 24 1017.9
20260906203503 26 188 9.7 27.4 0.00 0.00 0.00 24 1017.9
20260906203402 26 188 8.0 27.4 0.00 0.00 0.00 23 1017.8
20260906203302 27 189 8.0 27.4 0.00 0.00 0.00 23 1018.0
20260906203202 27 200 8.0 24.1 0.00 0.00 0.00 23 1018.0
20260906203102 27 203 8.0 24.1 0.00 0.00 0.00 23 1017.9
20260906203002 27 211 8.0 24.1 0.00 0.00 0.00 23 1018.0
20260906202902 27 213 8.0 24.1 0.00 0.00 0.00 23 1018.1
20260906202803 27 220 6.4 24.1 0.00 0.00 0.00 24 1018.1
20260906202502 26 206 8.0 24.1 0.00 0.00 0.00 24 1018.0
20260906202402 26 202 8.0 24.1 0.00 0.00 0.00 24 1017.9
20260906202306 26 203 8.0 24.1 0.00 0.00 0.00 24 1018.0
20260906202202 26 197 8.0 19.3 0.00 0.00 0.00 24 1018.1
20260906202102 26 201 8.0 19.3 0.00 0.00 0.00 24 1017.9
20260906202002 26 201 6.4 19.3 0.00 0.00 0.00 25 1018.1
20260906201902 26 201 6.4 19.3 0.00 0.00 0.00 24 1018.0
20260906201802 26 204 6.4 19.3 0.00 0.00 0.00 25 1018.2
20260906201502 26 243 6.4 20.9 0.00 0.00 0.00 25 1018.1
20260906201402 26 254 6.4 20.9 0.00 0.00 0.00 25 1018.1
20260906201202 26 251 6.4 20.9 0.00 0.00 0.00 25 1018.1
20260906201102 26 250 6.4 20.9 0.00 0.00 0.00 25 1018.1
20260906201003 26 253 6.4 20.9 0.00 0.00 0.00 25 1018.1
20260906200802 26 248 6.4 20.9 0.00 0.00 0.00 25 1018.1
20260906200703 26 245 6.4 20.9 0.00 0.00 0.00 25 1018.1
20260906200602 26 234 6.4 30.6 0.00 0.00 0.00 25 1018.1
20260906200403 26 232 6.4 30.6 0.00 0.00 0.00 25 1018.2
20260906200302 26 229 6.4 30.6 0.00 0.00 0.00 25 1018.2
20260906200202 26 230 6.4 30.6 0.00 0.00 0.00 25 1018.3
20260906200002 26 228 6.4 30.6 0.00 0.00 0.00 25 1018.4
20260906195903 26 229 8.0 30.6 0.00 0.00 0.00 25 1018.4
20260906195802 26 229 8.0 30.6 0.00 0.00 0.00 25 1018.4
20260906195702 26 230 8.0 30.6 0.00 0.00 0.00 25 1018.4
20260906195602 26 231 9.7 19.3 0.00 0.00 0.00 25 1018.3
20260906195502 26 235 9.7 19.3 0.00 0.00 0.00 25 1018.4
20260906195306 26 236 11.3 19.3 0.00 0.00 0.00 25 1018.4
20260906195202 26 236 11.3 19.3 0.00 0.00 0.00 25 1018.4
20260906195103 26 235 11.3 19.3 0.00 0.00 0.00 25 1018.5
20260906195002 26 239 11.3 19.3 0.00 0.00 0.00 25 1018.5
20260906194803 26 244 12.9 17.7 0.00 0.00 0.00 26 1018.6
20260906194702 26 237 12.9 17.7 0.00 0.00 0.00 26 1018.5
20260906194602 26 243 11.3 17.7 0.00 0.00 0.00 25 1018.6
20260906194502 26 221 11.3 17.7 0.00 0.00 0.00 25 1018.5
20260906194203 26 219 9.7 19.3 0.00 0.00 0.00 25 1018.6
20260906194102 26 217 8.0 27.4 0.00 0.00 0.00 26 1018.8
20260906194003 26 220 8.0 20.9 0.00 0.00 0.00 26 1018.8
20260906193903 26 221 8.0 20.9 0.00 0.00 0.00 25 1018.6
20260906193803 26 198 9.7 20.9 0.00 0.00 0.00 27 1018.8
20260906193702 26 164 9.7 19.3 0.00 0.00 0.00 27 1018.8
20260906193403 25 128 9.7 16.1 0.00 0.00 0.00 28 1018.8
20260906193203 25 123 9.7 16.1 0.00 0.00 0.00 28 1018.8
20260906193103 25 127 9.7 16.1 0.00 0.00 0.00 28 1018.9
20260906193002 25 132 9.7 16.1 0.00 0.00 0.00 28 1018.8
20260906192903 25 141 9.7 17.7 0.00 0.00 0.00 28 1018.8
20260906192803 25 161 9.7 17.7 0.00 0.00 0.00 28 1018.9
20260906192503 26 223 9.7 17.7 0.00 0.00 0.00 27 1018.9
20260906192403 26 231 8.0 17.7 0.00 0.00 0.00 27 1019.0
20260906192306 26 239 8.0 17.7 0.00 0.00 0.00 27 1018.9
20260906192103 26 240 8.0 17.7 0.00 0.00 0.00 26 1019.0
20260906192002 26 238 8.0 17.7 0.00 0.00 0.00 25 1018.9
20260906191903 26 231 6.4 16.1 0.00 0.00 0.00 25 1019.0
20260906191803 26 214 6.4 16.1 0.00 0.00 0.00 25 1019.0
20260906191503 26 88 8.0 16.1 0.00 0.00 0.00 26 1019.1
20260906191403 26 72 8.0 17.7 0.00 0.00 0.00 26 1019.2
20260906191302 26 68 8.0 17.7 0.00 0.00 0.00 28 1019.0
20260906191203 26 64 9.7 17.7 0.00 0.00 0.00 27 1019.2
20260906191003 26 67 9.7 17.7 0.00 0.00 0.00 27 1019.1
20260906190803 26 71 11.3 17.7 0.00 0.00 0.00 28 1019.1
20260906190604 25 74 11.3 17.7 0.00 0.00 0.00 30 1019.2
20260906190504 25 76 11.3 17.7 0.00 0.00 0.00 30 1019.3
20260906190403 25 79 11.3 20.9 0.00 0.00 0.00 29 1019.2
20260906190003 25 79 9.7 20.9 0.00 0.00 0.00 28 1019.3
20260906185903 25 82 9.7 20.9 0.00 0.00 0.00 27 1019.3
20260906185803 25 84 9.7 20.9 0.00 0.00 0.00 28 1019.3
20260906185703 25 86 9.7 20.9 0.00 0.00 0.00 26 1019.2
20260906185603 25 88 8.0 20.9 0.00 0.00 0.00 27 1019.3
20260906185503 25 90 8.0 20.9 0.00 0.00 0.00 27 1019.3
20260906185404 25 93 8.0 19.3 0.00 0.00 0.00 26 1019.2
20260906185306 25 102 8.0 19.3 0.00 0.00 0.00 27 1019.4
20260906185203 25 105 8.0 19.3 0.00 0.00 0.00 27 1019.4
20260906185102 25 102 8.0 19.3 0.00 0.00 0.00 27 1019.5
20260906184903 25 98 6.4 19.3 0.00 0.00 0.00 27 1019.6
20260906184803 25 94 6.4 19.3 0.00 0.00 0.00 27 1019.6
20260906184603 25 94 6.4 14.5 0.00 0.00 0.00 29 1019.5
20260906184403 25 90 6.4 14.5 0.00 0.00 0.00 29 1019.6
20260906184304 25 84 6.4 14.5 0.00 0.00 0.00 29 1019.6
20260906184203 25 87 6.4 14.5 0.00 0.00 0.00 30 1019.6
20260906184103 24 91 8.0 14.5 0.00 0.00 0.00 28 1019.7
20260906184003 24 94 8.0 14.5 0.00 0.00 0.00 29 1019.6
20260906183903 24 96 8.0 14.5 0.00 0.00 0.00 29 1019.7
20260906183703 24 97 8.0 14.5 0.00 0.00 0.00 29 1019.7
20260906183603 24 95 8.0 14.5 0.00 0.00 0.00 30 1019.7
20260906183403 24 96 8.0 12.9 0.00 0.00 0.00 28 1019.7
20260906183303 24 90 8.0 12.9 0.00 0.00 0.00 29 1019.8
20260906183202 24 84 8.0 14.5 0.00 0.00 0.00 29 1019.8
20260906183103 24 79 8.0 14.5 0.00 0.00 0.00 29 1019.7
20260906183003 24 72 8.0 14.5 0.00 0.00 0.00 29 1019.8
20260906182803 24 63 8.0 14.5 0.00 0.00 0.00 30 1019.8
20260906182703 23 61 8.0 14.5 0.00 0.00 0.00 30 1019.5
20260906182306 23 58 8.0 16.1 0.00 0.00 0.00 30 1019.6
20260906182202 23 57 8.0 16.1 0.00 0.00 0.00 30 1019.6
20260906182103 23 53 8.0 16.1 0.00 0.00 0.00 30 1019.6
20260906182003 23 52 8.0 16.1 0.00 0.00 0.00 32 1019.6
20260906181903 23 53 8.0 16.1 0.00 0.00 0.00 30 1019.7
20260906181703 23 60 8.0 16.1 0.00 0.00 0.00 29 1019.8
20260906181603 23 57 8.0 14.5 0.00 0.00 0.00 30 1019.7
20260906181503 23 57 8.0 14.5 0.00 0.00 0.00 29 1019.8
20260906181403 23 60 8.0 14.5 0.00 0.00 0.00 28 1019.7
20260906181302 23 64 8.0 14.5 0.00 0.00 0.00 29 1019.9
20260906181203 23 67 8.0 14.5 0.00 0.00 0.00 29 1020.0
20260906181103 24 70 8.0 14.5 0.00 0.00 0.00 29 1020.3
20260906181003 24 72 8.0 14.5 0.00 0.00 0.00 30 1020.3
20260906180903 24 75 8.0 16.1 0.00 0.00 0.00 30 1020.4
20260906180803 23 79 8.0 16.1 0.00 0.00 0.00 30 1020.0
20260906180703 23 81 8.0 16.1 0.00 0.00 0.00 32 1020.0
20260906180602 23 80 6.4 16.1 0.00 0.00 0.00 31 1020.1
20260906180503 23 78 6.4 16.1 0.00 0.00 0.00 30 1020.2
20260906180302 23 79 6.4 16.1 0.00 0.00 0.00 31 1020.1
20260906180203 23 80 8.0 16.1 0.00 0.00 0.00 31 1020.2
20260906180004 23 84 8.0 16.1 0.00 0.00 0.00 30 1020.3
20260906175903 23 86 8.0 16.1 0.00 0.00 0.00 31 1020.3
20260906175703 23 83 9.7 16.1 0.00 0.00 0.00 29 1020.2
20260906175603 23 84 9.7 16.1 0.00 0.00 0.00 29 1020.2
20260906175503 23 87 9.7 16.1 0.00 0.00 0.00 30 1020.4
20260906175403 23 89 9.7 16.1 0.00 0.00 0.00 30 1020.3
20260906175306 23 91 9.7 16.1 0.00 0.00 0.00 31 1020.4
20260906175203 23 91 9.7 16.1 0.00 0.00 0.00 31 1020.4
20260906175103 23 91 9.7 16.1 0.00 0.00 0.00 30 1020.5
20260906175003 23 91 9.7 16.1 0.00 0.00 0.00 32 1020.4
20260906174902 23 91 9.7 16.1 0.00 0.00 0.00 31 1020.4
20260906174803 23 91 8.0 17.7 0.00 0.00 0.00 31 1020.4
20260906174703 23 92 8.0 17.7 0.00 0.00 0.00 32 1020.5
20260906174603 23 92 8.0 17.7 0.00 0.00 0.00 33 1020.5
20260906174503 22 92 8.0 17.7 0.00 0.00 0.00 32 1020.5
20260906174403 22 90 8.0 17.7 0.00 0.00 0.00 33 1020.5
20260906174203 22 88 8.0 17.7 0.00 0.00 0.00 31 1020.5
20260906174103 22 87 8.0 17.7 0.00 0.00 0.00 31 1020.6
20260906173903 22 86 8.0 17.7 0.00 0.00 0.00 32 1020.6
20260906173803 22 85 8.0 12.9 0.00 0.00 0.00 32 1020.6
20260906173703 22 86 8.0 16.1 0.00 0.00 0.00 32 1020.7
20260906173603 22 86 8.0 16.1 0.00 0.00 0.00 32 1020.7
20260906173503 22 86 8.0 16.1 0.00 0.00 0.00 31 1020.7
20260906173403 22 86 8.0 16.1 0.00 0.00 0.00 32 1020.7
20260906173302 22 84 8.0 16.1 0.00 0.00 0.00 32 1020.7
20260906173203 22 81 8.0 16.1 0.00 0.00 0.00 33 1020.7
20260906173003 22 83 6.4 16.1 0.00 0.00 0.00 32 1020.7
20260906172803 22 82 6.4 16.1 0.00 0.00 0.00 34 1020.7
20260906172603 22 83 6.4 14.5 0.00 0.00 0.00 32 1020.8
20260906172503 22 83 6.4 14.5 0.00 0.00 0.00 32 1020.8
20260906172403 22 83 6.4 14.5 0.00 0.00 0.00 33 1020.8
20260906172305 22 84 6.4 14.5 0.00 0.00 0.00 33 1020.8
20260906172202 22 86 6.4 14.5 0.00 0.00 0.00 33 1020.9
20260906172103 22 87 8.0 14.5 0.00 0.00 0.00 33 1021.0
20260906172002 22 89 8.0 14.5 0.00 0.00 0.00 33 1021.0
20260906171903 22 90 8.0 14.5 0.00 0.00 0.00 32 1021.0
20260906171704 22 94 8.0 14.5 0.00 0.00 0.00 32 1021.1
20260906171603 22 97 8.0 14.5 0.00 0.00 0.00 32 1021.2
20260906171403 22 106 8.0 14.5 0.00 0.00 0.00 31 1021.1
20260906171303 22 108 8.0 14.5 0.00 0.00 0.00 31 1021.1
20260906171203 22 112 8.0 14.5 0.00 0.00 0.00 31 1021.1
20260906170903 22 116 8.0 14.5 0.00 0.00 0.00 32 1021.1
20260906170803 22 119 8.0 14.5 0.00 0.00 0.00 30 1021.1
20260906170702 22 114 8.0 14.5 0.00 0.00 0.00 30 1021.1
20260906170603 22 109 8.0 14.5 0.00 0.00 0.00 30 1021.1
20260906170503 22 104 8.0 14.5 0.00 0.00 0.00 31 1021.1
20260906170303 22 94 8.0 16.1 0.00 0.00 0.00 31 1021.2
20260906170203 22 92 8.0 16.1 0.00 0.00 0.00 32 1021.3
20260906170103 22 90 8.0 16.1 0.00 0.00 0.00 32 1021.1
20260906170003 22 88 8.0 16.1 0.00 0.00 0.00 32 1021.1
20260906165903 22 87 8.0 16.1 0.00 0.00 0.00 32 1021.2
20260906165803 22 86 8.0 16.1 0.00 0.00 0.00 31 1021.1
20260906165703 22 85 8.0 16.1 0.00 0.00 0.00 31 1021.1
20260906165602 22 85 8.0 16.1 0.00 0.00 0.00 31 1021.0
20260906165503 22 82 6.4 16.1 0.00 0.00 0.00 31 1021.0
20260906165403 22 83 6.4 16.1 0.00 0.00 0.00 31 1021.0
20260906165306 22 81 8.0 16.1 0.00 0.00 0.00 32 1021.2
20260906165203 22 82 8.0 16.1 0.00 0.00 0.00 32 1021.1
20260906165103 22 85 8.0 16.1 0.00 0.00 0.00 32 1021.1
20260906164902 22 90 8.0 16.1 0.00 0.00 0.00 32 1021.0
20260906164803 21 91 8.0 16.1 0.00 0.00 0.00 33 1021.0
20260906164703 21 90 8.0 16.1 0.00 0.00 0.00 33 1021.1
20260906164603 21 90 8.0 16.1 0.00 0.00 0.00 33 1021.0
20260906164503 21 92 8.0 16.1 0.00 0.00 0.00 33 1021.0
20260906164403 21 92 8.0 16.1 0.00 0.00 0.00 33 1021.0
20260906164202 21 92 6.4 16.1 0.00 0.00 0.00 34 1021.0
20260906164103 21 90 6.4 14.5 0.00 0.00 0.00 33 1021.1
20260906164003 21 91 6.4 14.5 0.00 0.00 0.00 33 1021.1
20260906163903 21 91 6.4 14.5 0.00 0.00 0.00 33 1021.1
20260906163802 21 90 6.4 14.5 0.00 0.00 0.00 33 1021.2
20260906163703 22 90 6.4 14.5 0.00 0.00 0.00 33 1021.1
20260906163502 22 90 4.8 12.9 0.00 0.00 0.00 32 1021.1
20260906163403 22 89 4.8 12.9 0.00 0.00 0.00 32 1021.1
20260906163303 22 87 4.8 12.9 0.00 0.00 0.00 33 1021.2
20260906163103 22 84 4.8 12.9 0.00 0.00 0.00 33 1021.2
20260906163003 22 78 4.8 12.9 0.00 0.00 0.00 33 1021.2
20260906162903 22 75 4.8 12.9 0.00 0.00 0.00 33 1021.2
20260906162803 22 72 4.8 12.9 0.00 0.00 0.00 33 1021.2
20260906162703 22 70 4.8 12.9 0.00 0.00 0.00 32 1021.0
20260906162603 22 66 6.4 12.9 0.00 0.00 0.00 34 1021.1
20260906162503 22 62 6.4 12.9 0.00 0.00 0.00 34 1021.0
20260906162403 22 60 6.4 8.0 0.00 0.00 0.00 32 1021.0
20260906162306 22 60 6.4 8.0 0.00 0.00 0.00 32 1021.0
20260906162203 21 64 6.4 11.3 0.00 0.00 0.00 32 1021.0
20260906161902 21 80 6.4 12.9 0.00 0.00 0.00 34 1021.1
20260906161803 21 83 4.8 12.9 0.00 0.00 0.00 34 1021.1
20260906161703 21 90 4.8 12.9 0.00 0.00 0.00 34 1021.2
20260906161503 21 97 4.8 12.9 0.00 0.00 0.00 31 1021.0
20260906161403 21 96 4.8 12.9 0.00 0.00 0.00 32 1021.0
20260906161303 21 97 4.8 12.9 0.00 0.00 0.00 31 1021.0
20260906161202 21 98 4.8 12.9 0.00 0.00 0.00 31 1021.0
20260906161103 21 98 4.8 11.3 0.00 0.00 0.00 31 1021.0
20260906161003 21 99 4.8 11.3 0.00 0.00 0.00 31 1021.0
20260906160903 21 99 4.8 9.7 0.00 0.00 0.00 33 1021.1
20260906160803 21 99 4.8 12.9 0.00 0.00 0.00 32 1021.0
20260906160703 21 93 4.8 12.9 0.00 0.00 0.00 31 1021.0
20260906160603 21 90 4.8 12.9 0.00 0.00 0.00 31 1020.9
20260906160502 21 90 4.8 12.9 0.00 0.00 0.00 32 1020.9
20260906160403 21 93 4.8 12.9 0.00 0.00 0.00 32 1020.9
20260906160303 21 94 6.4 12.9 0.00 0.00 0.00 31 1020.9
20260906160202 21 91 6.4 12.9 0.00 0.00 0.00 32 1020.9
20260906160103 21 86 6.4 12.9 0.00 0.00 0.00 32 1020.9
20260906160003 21 80 6.4 12.9 0.00 0.00 0.00 32 1021.0
20260906155903 21 75 6.4 12.9 0.00 0.00 0.00 31 1021.0
20260906155803 21 68 8.0 12.9 0.00 0.00 0.00 32 1020.9
20260906155703 21 69 8.0 11.3 0.00 0.00 0.00 31 1021.0
20260906155603 21 72 8.0 11.3 0.00 0.00 0.00 32 1020.9
20260906155502 21 74 8.0 11.3 0.00 0.00 0.00 31 1020.9
20260906155403 21 72 8.0 12.9 0.00 0.00 0.00 31 1020.9
20260906155306 21 72 8.0 12.9 0.00 0.00 0.00 31 1021.0
20260906155203 21 74 8.0 12.9 0.00 0.00 0.00 30 1021.0
20260906155103 21 77 8.0 12.9 0.00 0.00 0.00 30 1021.0
20260906154903 21 82 8.0 12.9 0.00 0.00 0.00 31 1021.0
20260906154802 21 85 8.0 12.9 0.00 0.00 0.00 30 1021.0
20260906154603 21 87 8.0 12.9 0.00 0.00 0.00 32 1020.9
20260906154503 21 85 8.0 12.9 0.00 0.00 0.00 34 1021.1
20260906154203 21 88 6.4 12.9 0.00 0.00 0.00 34 1021.2
20260906154103 21 86 6.4 12.9 0.00 0.00 0.00 34 1021.2
20260906154003 21 87 6.4 12.9 0.00 0.00 0.00 35 1021.3
20260906153904 21 88 6.4 12.9 0.00 0.00 0.00 34 1021.2
20260906153802 21 85 6.4 12.9 0.00 0.00 0.00 33 1021.2
20260906153703 21 84 6.4 12.9 0.00 0.00 0.00 34 1021.3
20260906153602 21 83 6.4 12.9 0.00 0.00 0.00 33 1021.2
20260906153503 21 82 6.4 12.9 0.00 0.00 0.00 33 1021.2
20260906153304 21 76 6.4 11.3 0.00 0.00 0.00 31 1021.0
20260906153203 21 74 6.4 11.3 0.00 0.00 0.00 30 1021.1
20260906153103 21 72 6.4 11.3 0.00 0.00 0.00 30 1021.1
20260906152902 21 65 4.8 11.3 0.00 0.00 0.00 30 1021.1
20260906152803 21 65 4.8 11.3 0.00 0.00 0.00 32 1021.0
20260906152703 21 65 4.8 9.7 0.00 0.00 0.00 32 1021.1
20260906152603 21 66 4.8 9.7 0.00 0.00 0.00 31 1021.0
20260906152502 21 66 4.8 9.7 0.00 0.00 0.00 31 1021.0
20260906152403 21 65 4.8 9.7 0.00 0.00 0.00 32 1021.1
20260906152306 21 63 4.8 9.7 0.00 0.00 0.00 30 1021.1
20260906152203 21 63 4.8 9.7 0.00 0.00 0.00 32 1021.0
20260906152103 21 62 4.8 9.7 0.00 0.00 0.00 31 1021.1
20260906151803 21 64 4.8 9.7 0.00 0.00 0.00 31 1021.1
20260906151703 21 61 4.8 8.0 0.00 0.00 0.00 31 1021.1
20260906151603 21 58 4.8 8.0 0.00 0.00 0.00 33 1021.1
20260906151504 21 55 4.8 8.0 0.00 0.00 0.00 32 1021.0
20260906151403 21 58 4.8 8.0 0.00 0.00 0.00 31 1021.0
20260906151303 21 60 4.8 9.7 0.00 0.00 0.00 30 1021.0
20260906151203 21 59 4.8 9.7 0.00 0.00 0.00 31 1021.0
20260906151103 21 59 4.8 9.7 0.00 0.00 0.00 30 1021.0
20260906151003 21 59 4.8 9.7 0.00 0.00 0.00 30 1021.0
20260906150902 21 59 4.8 9.7 0.00 0.00 0.00 30 1021.0
20260906150703 21 57 4.8 9.7 0.00 0.00 0.00 32 1020.9
20260906150504 21 57 4.8 9.7 0.00 0.00 0.00 30 1021.0
20260906150403 21 56 4.8 9.7 0.00 0.00 0.00 33 1020.9
20260906150303 21 54 4.8 8.0 0.00 0.00 0.00 31 1021.0
20260906150203 21 54 4.8 8.0 0.00 0.00 0.00 32 1021.0
20260906150103 21 53 4.8 8.0 0.00 0.00 0.00 30 1021.0
20260906150003 21 52 4.8 8.0 0.00 0.00 0.00 30 1021.0
20260906145903 20 50 3.2 8.0 0.00 0.00 0.00 34 1021.0
20260906145802 20 48 3.2 8.0 0.00 0.00 0.00 32 1020.9
20260906145703 20 47 3.2 8.0 0.00 0.00 0.00 30 1020.9
20260906145603 20 46 3.2 8.0 0.00 0.00 0.00 34 1021.1
20260906145503 20 44 3.2 8.0 0.00 0.00 0.00 31 1021.0
20260906145404 21 43 3.2 8.0 0.00 0.00 0.00 31 1020.9
20260906145306 20 41 3.2 8.0 0.00 0.00 0.00 35 1021.1
20260906145203 20 38 3.2 8.0 0.00 0.00 0.00 33 1020.9
20260906145103 20 34 1.6 8.0 0.00 0.00 0.00 35 1021.1
20260906144903 20 29 1.6 8.0 0.00 0.00 0.00 35 1021.0
20260906144703 20 27 1.6 8.0 0.00 0.00 0.00 35 1021.0
20260906144603 20 26 1.6 6.4 0.00 0.00 0.00 35 1020.9
20260906144503 20 25 1.6 4.8 0.00 0.00 0.00 35 1021.0
20260906144403 20 28 1.6 4.8 0.00 0.00 0.00 33 1020.9
20260906144303 20 30 1.6 4.8 0.00 0.00 0.00 37 1021.0
20260906144202 20 33 1.6 4.8 0.00 0.00 0.00 36 1021.1
20260906143904 20 45 1.6 4.8 0.00 0.00 0.00 37 1021.0
20260906143803 20 51 1.6 4.8 0.00 0.00 0.00 38 1021.0
20260906143703 20 56 1.6 4.8 0.00 0.00 0.00 37 1021.0
20260906143603 20 61 1.6 4.8 0.00 0.00 0.00 37 1021.0
20260906143503 20 61 1.6 4.8 0.00 0.00 0.00 36 1020.9
20260906143403 20 65 0.0 4.8 0.00 0.00 0.00 37 1021.1
20260906143303 20 66 0.0 4.8 0.00 0.00 0.00 37 1021.1
20260906143203 20 66 0.0 4.8 0.00 0.00 0.00 37 1021.1
20260906143103 20 66 0.0 4.8 0.00 0.00 0.00 38 1021.1
20260906143003 20 66 0.0 4.8 0.00 0.00 0.00 36 1021.0
20260906142903 20 0 0.0 4.8 0.00 0.00 0.00 36 1021.0
20260906142803 20 0 0.0 4.8 0.00 0.00 0.00 37 1021.1
20260906142602 20 0 0.0 1.6 0.00 0.00 0.00 37 1021.1
20260906142503 20 0 0.0 1.6 0.00 0.00 0.00 38 1021.1
20260906142403 20 0 0.0 1.6 0.00 0.00 0.00 40 1021.1
20260906142306 19 0 0.0 1.6 0.00 0.00 0.00 39 1021.2
20260906142203 19 0 0.0 1.6 0.00 0.00 0.00 39 1021.1
20260906142103 19 0 0.0 1.6 0.00 0.00 0.00 39 1021.1
20260906142004 18 0 0.0 1.6 0.00 0.00 0.00 40 1021.1
20260906141903 18 0 0.0 1.6 0.00 0.00 0.00 39 1021.0
20260906141804 18 0 0.0 1.6 0.00 0.00 0.00 39 1021.1
20260906141703 18 0 0.0 1.6 0.00 0.00 0.00 38 1021.0
20260906141603 18 0 0.0 1.6 0.00 0.00 0.00 38 1021.0
20260906141503 18 0 0.0 1.6 0.00 0.00 0.00 38 1021.0
20260906141403 19 0 0.0 1.6 0.00 0.00 0.00 37 1020.9
20260906141302 19 0 0.0 1.6 0.00 0.00 0.00 37 1020.9
20260906141203 19 0 0.0 0.0 0.00 0.00 0.00 37 1021.1
20260906141103 19 0 0.0 0.0 0.00 0.00 0.00 36 1020.9
20260906141003 19 0 0.0 0.0 0.00 0.00 0.00 36 1020.9
20260906140903 19 0 0.0 0.0 0.00 0.00 0.00 36 1020.9
20260906140803 19 0 0.0 0.0 0.00 0.00 0.00 35 1020.9
20260906140703 19 0 0.0 0.0 0.00 0.00 0.00 35 1020.9
20260906140603 18 0 0.0 0.0 0.00 0.00 0.00 37 1020.8
20260906140503 18 0 0.0 0.0 0.00 0.00 0.00 38 1021.0
20260906140403 18 0 0.0 0.0 0.00 0.00 0.00 40 1021.1
20260906140304 18 0 0.0 0.0 0.00 0.00 0.00 40 1021.1
20260906140203 18 0 0.0 0.0 0.00 0.00 0.00 40 1021.1
20260906140002 18 0 0.0 0.0 0.00 0.00 0.00 39 1021.0
20260906135903 18 0 0.0 0.0 0.00 0.00 0.00 40 1021.1
20260906135703 18 0 0.0 0.0 0.00 0.00 0.00 38 1021.0
20260906135603 18 0 0.0 0.0 0.00 0.00 0.00 38 1021.0
20260906135503 18 0 0.0 0.0 0.00 0.00 0.00 38 1021.1
20260906135403 17 0 0.0 0.0 0.00 0.00 0.00 45 1021.2
20260906135305 17 0 0.0 0.0 0.00 0.00 0.00 45 1021.2
20260906135202 17 0 0.0 0.0 0.00 0.00 0.00 44 1021.3
20260906135003 17 0 0.0 0.0 0.00 0.00 0.00 43 1021.2
20260906134903 17 0 0.0 0.0 0.00 0.00 0.00 44 1021.1
20260906134703 16 0 0.0 0.0 0.00 0.00 0.00 44 1021.2
20260906134603 16 0 0.0 1.6 0.00 0.00 0.00 43 1021.1
20260906134503 16 0 0.0 1.6 0.00 0.00 0.00 47 1021.3
20260906134403 16 0 0.0 1.6 0.00 0.00 0.00 45 1021.2
20260906134303 16 0 0.0 1.6 0.00 0.00 0.00 43 1020.6
20260906134203 16 0 0.0 1.6 0.00 0.00 0.00 40 1020.6
20260906134103 16 0 0.0 1.6 0.00 0.00 0.00 40 1020.7
20260906134003 16 0 0.0 1.6 0.00 0.00 0.00 40 1020.6
20260906133903 16 0 0.0 1.6 0.00 0.00 0.00 41 1020.7
20260906133803 16 0 0.0 1.6 0.00 0.00 0.00 42 1020.6
20260906133603 16 259 0.0 1.6 0.00 0.00 0.00 41 1020.6
20260906133503 15 259 0.0 1.6 0.00 0.00 0.00 41 1020.6
20260906133403 15 259 0.0 1.6 0.00 0.00 0.00 40 1020.5
20260906133303 15 259 0.0 1.6 0.00 0.00 0.00 41 1020.5
20260906133203 15 259 0.0 1.6 0.00 0.00 0.00 42 1020.6
20260906133103 15 262 1.6 1.6 0.00 0.00 0.00 42 1020.5
20260906133004 15 261 1.6 1.6 0.00 0.00 0.00 43 1020.6
20260906132903 15 258 1.6 1.6 0.00 0.00 0.00 42 1020.5
20260906132703 15 242 1.6 3.2 0.00 0.00 0.00 43 1020.5
20260906132504 15 234 1.6 3.2 0.00 0.00 0.00 43 1020.4
20260906132403 15 234 1.6 3.2 0.00 0.00 0.00 43 1020.3
20260906132306 15 234 1.6 3.2 0.00 0.00 0.00 43 1020.3
20260906132203 14 236 1.6 3.2 0.00 0.00 0.00 44 1020.4
20260906132103 14 233 1.6 3.2 0.00 0.00 0.00 44 1020.3
20260906132003 14 235 1.6 3.2 0.00 0.00 0.00 44 1020.3
20260906131803 14 245 1.6 3.2 0.00 0.00 0.00 44 1020.3
20260906131603 14 265 1.6 3.2 0.00 0.00 0.00 45 1020.4
20260906131503 14 274 1.6 1.6 0.00 0.00 0.00 43 1020.3
20260906131203 14 266 1.6 4.8 0.00 0.00 0.00 43 1020.2
20260906131003 14 260 1.6 4.8 0.00 0.00 0.00 43 1020.2
20260906130902 13 257 1.6 4.8 0.00 0.00 0.00 44 1020.2
20260906130703 13 254 1.6 4.8 0.00 0.00 0.00 45 1020.2
20260906130603 13 254 1.6 4.8 0.00 0.00 0.00 44 1020.2
20260906130503 13 252 1.6 4.8 0.00 0.00 0.00 46 1020.2
20260906130403 13 248 1.6 4.8 0.00 0.00 0.00 45 1020.1
20260906130303 13 245 1.6 4.8 0.00 0.00 0.00 45 1020.1
20260906130203 13 243 1.6 4.8 0.00 0.00 0.00 45 1020.1
20260906130103 13 241 1.6 1.6 0.00 0.00 0.00 45 1020.1
20260906125903 13 251 1.6 1.6 0.00 0.00 0.00 45 1020.0
20260906125703 13 259 1.6 1.6 0.00 0.00 0.00 46 1019.9
20260906125603 13 259 1.6 3.2 0.00 0.00 0.00 47 1019.9
20260906125503 13 262 1.6 3.2 0.00 0.00 0.00 47 1020.0
20260906125403 13 267 1.6 3.2 0.00 0.00 0.00 46 1020.3
20260906125306 13 270 1.6 3.2 0.00 0.00 0.00 45 1020.3
20260906125203 13 270 1.6 3.2 0.00 0.00 0.00 44 1020.2
20260906125103 13 269 1.6 3.2 0.00 0.00 0.00 45 1019.8
20260906125003 13 268 1.6 3.2 0.00 0.00 0.00 45 1019.8
20260906124903 13 264 1.6 3.2 0.00 0.00 0.00 45 1019.9
20260906124803 13 261 1.6 3.2 0.00 0.00 0.00 46 1019.9
20260906124703 13 260 1.6 3.2 0.00 0.00 0.00 46 1020.2
20260906124603 13 257 1.6 3.2 0.00 0.00 0.00 46 1020.3
20260906124503 13 256 1.6 3.2 0.00 0.00 0.00 45 1020.3
20260906124403 13 254 1.6 3.2 0.00 0.00 0.00 45 1020.3
20260906124303 13 253 1.6 3.2 0.00 0.00 0.00 46 1020.3
20260906124203 13 252 1.6 3.2 0.00 0.00 0.00 45 1020.2
20260906124103 13 252 1.6 3.2 0.00 0.00 0.00 45 1020.3
20260906123903 13 250 1.6 3.2 0.00 0.00 0.00 45 1020.3
20260906123704 13 254 1.6 3.2 0.00 0.00 0.00 45 1020.3
20260906123603 13 261 1.6 3.2 0.00 0.00 0.00 46 1020.3
20260906123503 13 259 1.6 3.2 0.00 0.00 0.00 45 1020.3
20260906123402 13 261 1.6 3.2 0.00 0.00 0.00 45 1020.3
20260906123303 13 261 1.6 3.2 0.00 0.00 0.00 45 1020.3
20260906123203 13 261 1.6 3.2 0.00 0.00 0.00 45 1020.2
20260906123103 13 261 1.6 3.2 0.00 0.00 0.00 45 1020.2
20260906123003 13 261 1.6 3.2 0.00 0.00 0.00 45 1020.2
20260906122703 13 259 1.6 3.2 0.00 0.00 0.00 45 1020.2
20260906122603 13 260 1.6 3.2 0.00 0.00 0.00 45 1020.1
20260906122503 13 263 1.6 3.2 0.00 0.00 0.00 45 1020.1
20260906122403 13 264 1.6 3.2 0.00 0.00 0.00 45 1019.7
20260906122306 13 265 1.6 3.2 0.00 0.00 0.00 45 1020.1
20260906122003 13 257 1.6 3.2 0.00 0.00 0.00 46 1020.1
20260906121903 13 252 1.6 4.8 0.00 0.00 0.00 45 1019.7
20260906121803 13 249 1.6 4.8 0.00 0.00 0.00 45 1019.7
20260906121703 13 249 1.6 4.8 0.00 0.00 0.00 46 1019.6
20260906121604 13 245 1.6 4.8 0.00 0.00 0.00 45 1019.6
20260906121503 13 243 1.6 4.8 0.00 0.00 0.00 46 1019.6
20260906121303 13 236 0.0 4.8 0.00 0.00 0.00 46 1019.6
20260906121203 13 233 0.0 4.8 0.00 0.00 0.00 46 1019.5
20260906121103 13 233 0.0 4.8 0.00 0.00 0.00 46 1019.6
20260906121003 13 234 0.0 4.8 0.00 0.00 0.00 46 1019.9
20260906120903 13 246 0.0 3.2 0.00 0.00 0.00 45 1019.9
20260906120803 13 259 0.0 1.6 0.00 0.00 0.00 45 1019.9
20260906120602 13 249 0.0 1.6 0.00 0.00 0.00 45 1019.5
20260906120403 13 250 1.6 1.6 0.00 0.00 0.00 45 1019.6
20260906120203 13 252 1.6 1.6 0.00 0.00 0.00 45 1019.9
20260906115903 13 265 1.6 3.2 0.00 0.00 0.00 45 1019.9
20260906115804 13 270 1.6 3.2 0.00 0.00 0.00 45 1019.9
20260906115703 13 274 1.6 3.2 0.00 0.00 0.00 45 1020.0
20260906115603 13 281 1.6 3.2 0.00 0.00 0.00 45 1019.9
20260906115403 13 287 1.6 4.8 0.00 0.00 0.00 45 1020.0
20260906115306 13 288 1.6 4.8 0.00 0.00 0.00 46 1019.9
20260906115202 13 287 1.6 4.8 0.00 0.00 0.00 45 1019.9
20260906115103 13 288 1.6 4.8 0.00 0.00 0.00 46 1019.9
20260906115003 13 289 0.0 4.8 0.00 0.00 0.00 46 1019.9
20260906114903 13 290 0.0 4.8 0.00 0.00 0.00 46 1019.9
20260906114803 13 291 0.0 4.8 0.00 0.00 0.00 46 1019.9
20260906114703 13 292 0.0 4.8 0.00 0.00 0.00 46 1019.9
20260906114503 13 289 0.0 4.8 0.00 0.00 0.00 45 1019.9
20260906114403 13 282 0.0 3.2 0.00 0.00 0.00 45 1019.9
20260906114303 13 270 0.0 1.6 0.00 0.00 0.00 46 1020.0
20260906114204 13 0 0.0 0.0 0.00 0.00 0.00 46 1020.0
20260906114103 13 0 1.6 0.0 0.00 0.00 0.00 46 1019.9
20260906114003 13 263 1.6 1.6 0.00 0.00 0.00 46 1019.9
20260906113903 13 263 1.6 3.2 0.00 0.00 0.00 45 1019.9
20260906113803 13 263 1.6 3.2 0.00 0.00 0.00 45 1019.9
20260906113703 13 261 1.6 3.2 0.00 0.00 0.00 45 1019.9
20260906113603 13 260 1.6 3.2 0.00 0.00 0.00 45 1019.9
20260906113503 13 259 1.6 3.2 0.00 0.00 0.00 45 1019.9
20260906113303 13 260 1.6 3.2 0.00 0.00 0.00 45 1019.9
20260906113203 13 258 1.6 4.8 0.00 0.00 0.00 44 1019.8
20260906113103 14 257 1.6 4.8 0.00 0.00 0.00 44 1019.9
20260906112903 14 256 1.6 4.8 0.00 0.00 0.00 44 1019.9
20260906112803 14 254 1.6 4.8 0.00 0.00 0.00 44 1019.9
20260906112703 14 254 1.6 4.8 0.00 0.00 0.00 44 1019.9
20260906112603 14 254 1.6 4.8 0.00 0.00 0.00 44 1019.9
20260906112503 14 257 1.6 4.8 0.00 0.00 0.00 44 1019.9
20260906112403 14 260 1.6 4.8 0.00 0.00 0.00 43 1019.9
20260906112203 14 262 1.6 3.2 0.00 0.00 0.00 43 1019.8
20260906112003 14 263 1.6 3.2 0.00 0.00 0.00 44 1019.9
20260906111903 14 265 1.6 3.2 0.00 0.00 0.00 44 1019.9
20260906111803 14 266 1.6 3.2 0.00 0.00 0.00 44 1019.9
20260906111603 14 269 1.6 3.2 0.00 0.00 0.00 43 1019.9
20260906111503 14 270 1.6 3.2 0.00 0.00 0.00 43 1019.8
20260906111403 14 270 1.6 3.2 0.00 0.00 0.00 42 1019.9
20260906111303 14 270 1.6 3.2 0.00 0.00 0.00 42 1019.9
20260906111003 14 278 1.6 3.2 0.00 0.00 0.00 44 1019.9
20260906110803 14 278 1.6 3.2 0.00 0.00 0.00 43 1019.9
20260906110703 14 275 1.6 3.2 0.00 0.00 0.00 42 1019.8
20260906110603 14 272 1.6 3.2 0.00 0.00 0.00 42 1019.8
20260906110503 14 270 1.6 3.2 0.00 0.00 0.00 42 1019.8
20260906110403 14 269 1.6 3.2 0.00 0.00 0.00 43 1019.9
20260906110303 14 267 1.6 3.2 0.00 0.00 0.00 43 1019.8
20260906110103 14 266 1.6 3.2 0.00 0.00 0.00 42 1019.8
20260906110003 14 266 1.6 3.2 0.00 0.00 0.00 43 1019.8
20260906105903 14 264 1.6 3.2 0.00 0.00 0.00 43 1019.8
20260906105803 14 262 1.6 3.2 0.00 0.00 0.00 43 1019.8
20260906105703 14 260 1.6 3.2 0.00 0.00 0.00 44 1019.8
20260906105603 14 257 1.6 3.2 0.00 0.00 0.00 44 1019.8
20260906105503 14 253 1.6 3.2 0.00 0.00 0.00 44 1019.8
20260906105404 14 248 1.6 3.2 0.00 0.00 0.00 44 1019.8
20260906105203 15 243 1.6 3.2 0.00 0.00 0.00 42 1019.8
20260906105103 15 243 1.6 3.2 0.00 0.00 0.00 42 1019.8
20260906105003 14 246 1.6 3.2 0.00 0.00 0.00 42 1019.8
20260906104903 14 254 1.6 3.2 0.00 0.00 0.00 41 1019.8
20260906104803 14 260 1.6 3.2 0.00 0.00 0.00 42 1019.8
20260906104704 14 263 1.6 4.8 0.00 0.00 0.00 44 1019.8
20260906104603 14 264 1.6 4.8 0.00 0.00 0.00 44 1019.8
20260906104503 14 265 1.6 4.8 0.00 0.00 0.00 44 1019.8
20260906104403 14 264 1.6 4.8 0.00 0.00 0.00 43 1019.8
20260906104203 14 263 1.6 4.8 0.00 0.00 0.00 44 1019.7
20260906104103 14 263 1.6 4.8 0.00 0.00 0.00 42 1019.7
20260906104004 14 263 1.6 4.8 0.00 0.00 0.00 43 1019.7
20260906103903 14 261 1.6 4.8 0.00 0.00 0.00 43 1019.6
20260906103703 14 255 3.2 4.8 0.00 0.00 0.00 43 1019.7
20260906103603 14 252 3.2 4.8 0.00 0.00 0.00 43 1019.7
20260906103503 14 250 3.2 4.8 0.00 0.00 0.00 43 1019.7
20260906103303 14 249 3.2 4.8 0.00 0.00 0.00 43 1019.7
20260906103203 15 248 1.6 4.8 0.00 0.00 0.00 43 1019.7
20260906103103 15 246 1.6 4.8 0.00 0.00 0.00 42 1019.7
20260906103003 15 245 1.6 4.8 0.00 0.00 0.00 42 1019.7
20260906102903 14 244 1.6 4.8 0.00 0.00 0.00 42 1019.6
20260906102703 14 244 1.6 4.8 0.00 0.00 0.00 42 1019.6
20260906102603 14 244 1.6 4.8 0.00 0.00 0.00 43 1019.6
20260906102503 14 247 1.6 4.8 0.00 0.00 0.00 43 1019.6
20260906102403 14 249 1.6 4.8 0.00 0.00 0.00 43 1019.8
20260906102306 14 251 1.6 4.8 0.00 0.00 0.00 42 1019.7
20260906102203 14 252 1.6 4.8 0.00 0.00 0.00 42 1019.7
20260906102103 14 255 1.6 4.8 0.00 0.00 0.00 42 1019.7
20260906102003 15 257 1.6 4.8 0.00 0.00 0.00 42 1019.7
20260906101903 15 261 1.6 3.2 0.00 0.00 0.00 42 1019.7
20260906101803 15 262 1.6 3.2 0.00 0.00 0.00 42 1019.6
20260906101703 15 262 1.6 3.2 0.00 0.00 0.00 41 1019.6
20260906101603 15 262 1.6 3.2 0.00 0.00 0.00 41 1019.7
20260906101503 15 261 1.6 3.2 0.00 0.00 0.00 41 1019.6
20260906101403 15 262 1.6 3.2 0.00 0.00 0.00 41 1019.6
20260906101302 15 263 1.6 1.6 0.00 0.00 0.00 41 1019.6
20260906101203 15 264 1.6 1.6 0.00 0.00 0.00 41 1019.6
20260906101103 15 266 1.6 1.6 0.00 0.00 0.00 41 1019.6
20260906101003 15 269 1.6 1.6 0.00 0.00 0.00 41 1019.7
20260906100903 15 269 1.6 1.6 0.00 0.00 0.00 40 1019.7
20260906100803 15 267 1.6 1.6 0.00 0.00 0.00 40 1019.7
20260906100603 15 263 1.6 3.2 0.00 0.00 0.00 39 1019.7
20260906100503 15 261 1.6 3.2 0.00 0.00 0.00 40 1019.8
20260906100403 15 260 1.6 3.2 0.00 0.00 0.00 40 1019.7
20260906100303 15 261 1.6 3.2 0.00 0.00 0.00 40 1019.7
20260906100203 15 263 1.6 3.2 0.00 0.00 0.00 40 1019.7
20260906100103 15 264 1.6 3.2 0.00 0.00 0.00 42 1019.6
20260906100003 15 265 1.6 3.2 0.00 0.00 0.00 42 1019.7
20260906095803 15 265 1.6 3.2 0.00 0.00 0.00 40 1019.6
20260906095703 15 264 1.6 3.2 0.00 0.00 0.00 42 1019.6
20260906095603 15 264 1.6 3.2 0.00 0.00 0.00 41 1019.6
20260906095504 15 263 1.6 3.2 0.00 0.00 0.00 41 1019.7
20260906095403 15 263 1.6 3.2 0.00 0.00 0.00 39 1019.6
20260906095306 15 262 1.6 3.2 0.00 0.00 0.00 39 1019.7
20260906095202 15 259 1.6 3.2 0.00 0.00 0.00 40 1019.6
20260906095103 15 257 1.6 3.2 0.00 0.00 0.00 41 1019.7
20260906095003 15 255 1.6 3.2 0.00 0.00 0.00 41 1019.6
20260906094903 15 255 1.6 3.2 0.00 0.00 0.00 41 1019.6
20260906094803 15 255 1.6 3.2 0.00 0.00 0.00 41 1019.6
20260906094703 15 255 1.6 3.2 0.00 0.00 0.00 41 1019.6
20260906094504 15 263 1.6 3.2 0.00 0.00 0.00 40 1019.7
20260906094403 15 267 1.6 3.2 0.00 0.00 0.00 40 1019.6
20260906094303 15 270 1.6 3.2 0.00 0.00 0.00 40 1019.6
20260906094203 15 273 3.2 4.8 0.00 0.00 0.00 40 1019.6
20260906094103 15 276 3.2 4.8 0.00 0.00 0.00 40 1019.6
20260906093903 15 272 3.2 4.8 0.00 0.00 0.00 40 1019.6
20260906093803 15 270 3.2 4.8 0.00 0.00 0.00 41 1019.6
20260906093603 15 261 1.6 6.4 0.00 0.00 0.00 41 1019.6
20260906093403 15 254 1.6 6.4 0.00 0.00 0.00 40 1019.5
20260906093303 15 252 1.6 6.4 0.00 0.00 0.00 40 1019.5
20260906093203 15 248 1.6 6.4 0.00 0.00 0.00 40 1019.5
20260906093004 14 241 1.6 6.4 0.00 0.00 0.00 41 1019.5
20260906092803 14 243 1.6 6.4 0.00 0.00 0.00 42 1019.5
20260906092703 14 254 1.6 4.8 0.00 0.00 0.00 42 1019.5
20260906092503 15 272 1.6 3.2 0.00 0.00 0.00 42 1019.4
20260906092403 15 275 1.6 3.2 0.00 0.00 0.00 42 1019.5
20260906092306 15 273 1.6 3.2 0.00 0.00 0.00 41 1019.4
20260906092203 15 271 1.6 3.2 0.00 0.00 0.00 42 1019.5
20260906092103 15 269 1.6 3.2 0.00 0.00 0.00 40 1019.5
20260906092003 15 266 1.6 3.2 0.00 0.00 0.00 39 1019.5
20260906091903 15 264 1.6 3.2 0.00 0.00 0.00 41 1019.4
20260906091803 15 262 1.6 3.2 0.00 0.00 0.00 42 1019.4
20260906091703 15 258 1.6 3.2 0.00 0.00 0.00 42 1019.4
20260906091603 15 257 1.6 3.2 0.00 0.00 0.00 43 1019.5
20260906091503 15 255 1.6 3.2 0.00 0.00 0.00 41 1019.4
20260906091403 15 254 1.6 3.2 0.00 0.00 0.00 42 1019.5
20260906091303 15 252 1.6 3.2 0.00 0.00 0.00 41 1019.5
20260906091103 15 253 1.6 3.2 0.00 0.00 0.00 41 1019.4
20260906091003 15 255 1.6 3.2 0.00 0.00 0.00 41 1019.4
20260906090903 15 251 1.6 3.2 0.00 0.00 0.00 41 1019.4
20260906090703 15 250 1.6 3.2 0.00 0.00 0.00 41 1019.4
20260906090603 15 250 1.6 3.2 0.00 0.00 0.00 40 1019.3
20260906090503 15 252 1.6 3.2 0.00 0.00 0.00 39 1019.3
20260906090403 15 252 1.6 3.2 0.00 0.00 0.00 39 1019.3
20260906090304 15 254 1.6 3.2 0.00 0.00 0.00 39 1019.4
20260906090103 15 258 3.2 4.8 0.00 0.00 0.00 39 1019.4
20260906085903 15 264 3.2 4.8 0.00 0.00 0.00 40 1019.3
20260906085703 15 257 3.2 4.8 0.00 0.00 0.00 39 1019.3
20260906085603 15 253 3.2 4.8 0.00 0.00 0.00 38 1019.3
20260906085403 15 248 3.2 4.8 0.00 0.00 0.00 38 1019.3
20260906085306 15 245 3.2 4.8 0.00 0.00 0.00 40 1019.3
20260906085203 15 245 3.2 4.8 0.00 0.00 0.00 40 1019.3
20260906085103 15 242 3.2 4.8 0.00 0.00 0.00 40 1019.3
20260906085004 15 240 3.2 4.8 0.00 0.00 0.00 39 1019.3
20260906084903 15 240 3.2 4.8 0.00 0.00 0.00 38 1019.3
20260906084803 15 242 3.2 4.8 0.00 0.00 0.00 39 1019.3
20260906084703 15 245 3.2 4.8 0.00 0.00 0.00 39 1019.3
20260906084603 15 247 3.2 4.8 0.00 0.00 0.00 38 1019.3
20260906084503 16 249 3.2 4.8 0.00 0.00 0.00 38 1019.3
20260906084203 16 251 1.6 4.8 0.00 0.00 0.00 37 1019.3
20260906084103 16 251 1.6 4.8 0.00 0.00 0.00 37 1019.3
20260906084003 16 251 1.6 4.8 0.00 0.00 0.00 38 1019.3
20260906083903 15 250 1.6 4.8 0.00 0.00 0.00 38 1019.3
20260906083803 15 249 1.6 4.8 0.00 0.00 0.00 39 1019.2
20260906083703 15 248 1.6 4.8 0.00 0.00 0.00 39 1019.2
20260906083603 15 248 1.6 4.8 0.00 0.00 0.00 39 1019.3
20260906083503 15 248 1.6 4.8 0.00 0.00 0.00 39 1019.2
20260906083403 15 249 1.6 3.2 0.00 0.00 0.00 39 1019.2
20260906083103 15 248 1.6 3.2 0.00 0.00 0.00 39 1019.3
20260906083004 15 250 1.6 3.2 0.00 0.00 0.00 39 1019.3
20260906082903 15 252 1.6 3.2 0.00 0.00 0.00 38 1019.3
20260906082803 15 254 1.6 3.2 0.00 0.00 0.00 38 1019.3
20260906082703 15 254 1.6 3.2 0.00 0.00 0.00 39 1019.3
20260906082603 15 250 1.6 4.8 0.00 0.00 0.00 38 1019.2
20260906082503 15 249 3.2 4.8 0.00 0.00 0.00 39 1019.2
20260906082403 15 248 3.2 4.8 0.00 0.00 0.00 39 1019.2
20260906082305 15 249 3.2 4.8 0.00 0.00 0.00 40 1019.2
20260906082203 15 252 3.2 4.8 0.00 0.00 0.00 40 1019.3
20260906082003 15 253 3.2 4.8 0.00 0.00 0.00 39 1019.2
20260906081903 15 252 3.2 4.8 0.00 0.00 0.00 39 1019.3
20260906081703 15 245 1.6 4.8 0.00 0.00 0.00 39 1019.3
20260906081604 15 246 1.6 4.8 0.00 0.00 0.00 39 1019.3
20260906081503 15 244 1.6 3.2 0.00 0.00 0.00 39 1019.3
20260906081403 16 242 1.6 3.2 0.00 0.00 0.00 38 1019.3
20260906081303 16 241 1.6 3.2 0.00 0.00 0.00 38 1019.3
20260906081203 16 241 1.6 3.2 0.00 0.00 0.00 38 1019.3
20260906081003 16 236 1.6 3.2 0.00 0.00 0.00 37 1019.4
20260906080904 16 233 1.6 3.2 0.00 0.00 0.00 38 1019.3
20260906080803 16 233 1.6 3.2 0.00 0.00 0.00 38 1019.3
20260906080703 15 234 1.6 3.2 0.00 0.00 0.00 38 1019.4
20260906080603 16 234 1.6 3.2 0.00 0.00 0.00 38 1019.4
20260906080503 16 236 1.6 3.2 0.00 0.00 0.00 38 1019.4
20260906080403 16 246 1.6 3.2 0.00 0.00 0.00 38 1019.4
20260906080303 16 255 1.6 1.6 0.00 0.00 0.00 37 1019.5
20260906080103 16 243 1.6 1.6 0.00 0.00 0.00 38 1019.3
20260906075903 16 241 1.6 1.6 0.00 0.00 0.00 37 1019.4
20260906075703 16 243 1.6 1.6 0.00 0.00 0.00 37 1019.4
20260906075603 16 246 1.6 4.8 0.00 0.00 0.00 37 1019.4
20260906075503 16 248 1.6 4.8 0.00 0.00 0.00 37 1019.5
20260906075403 16 250 1.6 6.4 0.00 0.00 0.00 37 1019.4
20260906075306 16 250 3.2 6.4 0.00 0.00 0.00 37 1019.5
20260906075203 16 252 3.2 6.4 0.00 0.00 0.00 38 1019.4
20260906075103 16 254 3.2 6.4 0.00 0.00 0.00 38 1019.4
20260906074903 16 254 3.2 6.4 0.00 0.00 0.00 38 1019.4
20260906074803 16 254 3.2 6.4 0.00 0.00 0.00 38 1019.5
20260906074603 16 253 3.2 6.4 0.00 0.00 0.00 38 1019.5
20260906074503 16 252 3.2 6.4 0.00 0.00 0.00 38 1019.5
20260906074403 16 251 1.6 4.8 0.00 0.00 0.00 38 1019.5
20260906074303 16 251 1.6 4.8 0.00 0.00 0.00 38 1019.5
20260906074203 16 252 1.6 4.8 0.00 0.00 0.00 38 1019.5
20260906074103 16 253 1.6 4.8 0.00 0.00 0.00 37 1019.5
20260906073903 16 253 0.0 4.8 0.00 0.00 0.00 38 1019.5
20260906073803 16 253 0.0 4.8 0.00 0.00 0.00 38 1019.5
20260906073703 16 252 0.0 4.8 0.00 0.00 0.00 38 1019.5
20260906073603 15 254 0.0 3.2 0.00 0.00 0.00 38 1019.5
20260906073503 15 256 0.0 3.2 0.00 0.00 0.00 38 1019.5
20260906073404 15 0 0.0 3.2 0.00 0.00 0.00 39 1019.5
20260906073303 15 0 0.0 3.2 0.00 0.00 0.00 39 1019.5
20260906073203 16 0 0.0 3.2 0.00 0.00 0.00 39 1019.5
20260906073103 16 0 0.0 1.6 0.00 0.00 0.00 38 1019.5
20260906073004 16 247 0.0 1.6 0.00 0.00 0.00 38 1019.5
20260906072903 16 252 0.0 1.6 0.00 0.00 0.00 37 1019.5
20260906072803 16 265 0.0 1.6 0.00 0.00 0.00 37 1019.5
20260906072703 16 265 0.0 1.6 0.00 0.00 0.00 38 1019.5
20260906072604 16 265 1.6 1.6 0.00 0.00 0.00 38 1019.5
20260906072503 15 0 1.6 0.0 0.00 0.00 0.00 38 1019.5
20260906072403 15 265 1.6 1.6 0.00 0.00 0.00 37 1019.5
20260906072306 15 265 1.6 1.6 0.00 0.00 0.00 37 1019.5
20260906072203 15 263 1.6 3.2 0.00 0.00 0.00 38 1019.5
20260906072103 16 259 1.6 3.2 0.00 0.00 0.00 39 1019.5
20260906072003 16 255 1.6 3.2 0.00 0.00 0.00 38 1019.5
20260906071903 16 255 1.6 3.2 0.00 0.00 0.00 38 1019.5
20260906071803 16 254 1.6 3.2 0.00 0.00 0.00 38 1019.4
20260906071703 16 250 1.6 3.2 0.00 0.00 0.00 38 1019.4
20260906071603 16 249 1.6 3.2 0.00 0.00 0.00 38 1019.5
20260906071503 16 249 1.6 3.2 0.00 0.00 0.00 38 1019.5
20260906071403 16 247 1.6 3.2 0.00 0.00 0.00 38 1019.5
20260906071303 16 245 1.6 3.2 0.00 0.00 0.00 37 1019.5
20260906071203 16 243 1.6 3.2 0.00 0.00 0.00 37 1019.5
20260906071103 16 245 1.6 3.2 0.00 0.00 0.00 37 1019.5
20260906071003 16 250 1.6 3.2 0.00 0.00 0.00 38 1019.4
20260906070903 16 252 1.6 3.2 0.00 0.00 0.00 38 1019.4
20260906070803 16 252 1.6 3.2 0.00 0.00 0.00 38 1019.5
20260906070704 16 255 1.6 3.2 0.00 0.00 0.00 37 1019.4
20260906070603 16 256 1.6 3.2 0.00 0.00 0.00 36 1019.5
20260906070503 16 256 3.2 3.2 0.00 0.00 0.00 36 1019.5
20260906070403 16 254 3.2 3.2 0.00 0.00 0.00 38 1019.4
20260906070203 16 263 3.2 4.8 0.00 0.00 0.00 37 1019.4
20260906070104 16 263 1.6 4.8 0.00 0.00 0.00 37 1019.4
20260906070003 16 261 1.6 4.8 0.00 0.00 0.00 37 1019.4
20260906065903 16 261 1.6 4.8 0.00 0.00 0.00 37 1019.4
20260906065803 16 263 1.6 4.8 0.00 0.00 0.00 37 1019.4
20260906065703 16 264 1.6 4.8 0.00 0.00 0.00 37 1019.3
20260906065603 16 266 1.6 4.8 0.00 0.00 0.00 37 1019.3
20260906065503 16 269 1.6 4.8 0.00 0.00 0.00 38 1019.3
20260906065403 16 271 1.6 4.8 0.00 0.00 0.00 36 1019.4
20260906065305 16 270 1.6 4.8 0.00 0.00 0.00 36 1019.4
20260906065204 16 268 1.6 3.2 0.00 0.00 0.00 36 1019.4
20260906065003 16 270 1.6 3.2 0.00 0.00 0.00 37 1019.3
20260906064802 16 272 1.6 3.2 0.00 0.00 0.00 37 1019.4
20260906064703 16 272 1.6 3.2 0.00 0.00 0.00 37 1019.3
20260906064603 16 270 1.6 1.6 0.00 0.00 0.00 38 1019.3
20260906064502 16 270 1.6 1.6 0.00 0.00 0.00 38 1019.4
20260906064403 15 271 1.6 1.6 0.00 0.00 0.00 38 1019.3
20260906064303 15 275 3.2 4.8 0.00 0.00 0.00 39 1019.3
20260906064203 15 280 3.2 4.8 0.00 0.00 0.00 38 1019.3
20260906064103 15 281 3.2 4.8 0.00 0.00 0.00 38 1019.3
20260906064003 15 282 3.2 4.8 0.00 0.00 0.00 39 1019.2
20260906063903 16 283 3.2 4.8 0.00 0.00 0.00 38 1019.3
20260906063803 16 283 3.2 4.8 0.00 0.00 0.00 38 1019.3
20260906063703 16 284 3.2 4.8 0.00 0.00 0.00 38 1019.2
20260906063603 16 284 1.6 4.8 0.00 0.00 0.00 38 1019.3
20260906063503 16 283 1.6 4.8 0.00 0.00 0.00 38 1019.2
20260906063403 16 283 1.6 4.8 0.00 0.00 0.00 37 1019.2
20260906063303 16 283 1.6 4.8 0.00 0.00 0.00 37 1019.2
20260906063104 16 282 1.6 4.8 0.00 0.00 0.00 38 1019.1
20260906063003 16 281 1.6 4.8 0.00 0.00 0.00 38 1019.1
20260906062903 16 279 3.2 4.8 0.00 0.00 0.00 38 1019.1
20260906062803 16 276 3.2 4.8 0.00 0.00 0.00 38 1019.2
20260906062704 16 272 3.2 4.8 0.00 0.00 0.00 38 1019.2
20260906062603 16 264 3.2 6.4 0.00 0.00 0.00 38 1019.2
20260906062503 16 252 3.2 6.4 0.00 0.00 0.00 38 1019.1
20260906062403 16 253 3.2 6.4 0.00 0.00 0.00 37 1019.2
20260906062306 16 252 3.2 6.4 0.00 0.00 0.00 36 1019.2
20260906062203 16 251 3.2 6.4 0.00 0.00 0.00 37 1019.1
20260906062103 15 252 3.2 6.4 0.00 0.00 0.00 38 1019.1
20260906062003 15 253 3.2 6.4 0.00 0.00 0.00 39 1019.0
20260906061903 15 252 3.2 6.4 0.00 0.00 0.00 39 1019.1
20260906061703 15 246 3.2 6.4 0.00 0.00 0.00 39 1019.1
20260906061603 16 245 3.2 6.4 0.00 0.00 0.00 38 1019.0
20260906061502 15 247 3.2 6.4 0.00 0.00 0.00 38 1019.1
20260906061403 15 246 3.2 6.4 0.00 0.00 0.00 38 1019.1
20260906061203 15 250 3.2 4.8 0.00 0.00 0.00 39 1019.0
20260906061103 15 251 1.6 4.8 0.00 0.00 0.00 39 1019.0
20260906061003 15 258 1.6 4.8 0.00 0.00 0.00 40 1019.0
20260906060903 15 266 1.6 4.8 0.00 0.00 0.00 41 1019.0
20260906060803 15 280 1.6 4.8 0.00 0.00 0.00 41 1019.0
20260906060603 15 296 1.6 4.8 0.00 0.00 0.00 41 1019.0
20260906060503 16 296 1.6 4.8 0.00 0.00 0.00 40 1019.0
20260906060403 16 300 0.0 4.8 0.00 0.00 0.00 40 1019.0
20260906060203 16 311 0.0 4.8 0.00 0.00 0.00 37 1018.9
20260906060103 16 312 0.0 4.8 0.00 0.00 0.00 37 1018.9
20260906060004 16 313 0.0 4.8 0.00 0.00 0.00 36 1018.9
20260906055903 16 0 0.0 4.8 0.00 0.00 0.00 37 1018.9
20260906055803 16 0 0.0 4.8 0.00 0.00 0.00 36 1018.9
20260906055703 18 0 0.0 0.0 0.00 0.00 0.00 33 1018.9
20260906055603 18 0 0.0 0.0 0.00 0.00 0.00 33 1018.8
20260906055504 18 0 0.0 0.0 0.00 0.00 0.00 32 1018.8
20260906055403 18 0 0.0 0.0 0.00 0.00 0.00 30 1018.9
20260906055306 18 0 0.0 0.0 0.00 0.00 0.00 30 1018.9
20260906055104 18 0 0.0 0.0 0.00 0.00 0.00 31 1018.8
20260906055003 18 0 0.0 0.0 0.00 0.00 0.00 30 1018.9
20260906054803 18 0 0.0 0.0 0.00 0.00 0.00 30 1018.9
20260906054703 18 0 0.0 0.0 0.00 0.00 0.00 30 1018.8
20260906054603 18 0 0.0 0.0 0.00 0.00 0.00 30 1018.8
20260906054403 18 0 0.0 0.0 0.00 0.00 0.00 30 1018.8
20260906054303 18 0 0.0 0.0 0.00 0.00 0.00 30 1018.8
20260906054203 18 0 0.0 0.0 0.00 0.00 0.00 30 1018.8
20260906054003 18 0 0.0 0.0 0.00 0.00 0.00 30 1018.8
20260906053903 18 0 0.0 0.0 0.00 0.00 0.00 30 1018.8
20260906053803 18 0 0.0 0.0 0.00 0.00 0.00 30 1018.7
20260906053703 18 0 0.0 0.0 0.00 0.00 0.00 30 1018.7
20260906053603 18 0 0.0 0.0 0.00 0.00 0.00 30 1018.7
20260906053503 18 0 0.0 0.0 0.00 0.00 0.00 30 1018.7
20260906053403 18 0 0.0 0.0 0.00 0.00 0.00 30 1018.7
20260906053303 18 0 0.0 0.0 0.00 0.00 0.00 30 1018.7
20260906053203 18 0 0.0 0.0 0.00 0.00 0.00 30 1018.7
20260906052903 19 0 0.0 0.0 0.00 0.00 0.00 29 1019.2
20260906052803 19 0 0.0 0.0 0.00 0.00 0.00 29 1019.1
20260906052603 19 0 0.0 0.0 0.00 0.00 0.00 29 1019.1
20260906052503 19 0 0.0 0.0 0.00 0.00 0.00 29 1019.1
20260906052403 20 0 0.0 0.0 0.00 0.00 0.00 28 1019.1
20260906052305 20 0 0.0 0.0 0.00 0.00 0.00 28 1019.1
20260906052103 20 0 0.0 0.0 0.00 0.00 0.00 28 1019.1
20260906051904 20 0 0.0 0.0 0.00 0.00 0.00 27 1019.1
20260906051803 21 0 0.0 0.0 0.00 0.00 0.00 27 1019.1
20260906051703 21 0 0.0 0.0 0.00 0.00 0.00 26 1019.2
20260906051604 21 0 0.0 0.0 0.00 0.00 0.00 26 1019.2
20260906051403 21 0 0.0 0.0 0.00 0.00 0.00 25 1019.2
20260906051303 21 0 0.0 0.0 0.00 0.00 0.00 25 1019.2
20260906051103 21 0 0.0 0.0 0.00 0.00 0.00 24 1019.2
20260906051003 22 0 0.0 0.0 0.00 0.00 0.00 24 1019.2
20260906050903 22 0 0.0 0.0 0.00 0.00 0.00 24 1019.1
20260906050802 22 0 0.0 0.0 0.00 0.00 0.00 24 1019.2
20260906050703 22 0 0.0 0.0 0.00 0.00 0.00 24 1019.2
20260906050503 22 0 0.0 0.0 0.00 0.00 0.00 24 1019.2
20260906050403 22 0 0.0 0.0 0.00 0.00 0.00 24 1019.2
20260906050303 22 0 0.0 0.0 0.00 0.00 0.00 24 1019.2
20260906050203 22 0 0.0 0.0 0.00 0.00 0.00 24 1019.2
20260906050004 22 0 0.0 0.0 0.00 0.00 0.00 24 1019.2
20260906045903 22 0 0.0 0.0 0.00 0.00 0.00 24 1019.2
20260906045803 22 0 0.0 0.0 0.00 0.00 0.00 24 1019.3
20260906045703 22 0 0.0 0.0 0.00 0.00 0.00 24 1019.2
20260906045503 22 0 0.0 0.0 0.00 0.00 0.00 24 1019.3
20260906045403 22 0 0.0 0.0 0.00 0.00 0.00 24 1019.3
20260906045305 22 0 0.0 0.0 0.00 0.00 0.00 24 1019.3
20260906045203 22 0 0.0 0.0 0.00 0.00 0.00 24 1019.3
20260906045103 22 0 0.0 0.0 0.00 0.00 0.00 24 1019.3
20260906044904 22 0 0.0 0.0 0.00 0.00 0.00 24 1019.3
20260906044703 22 0 0.0 0.0 0.00 0.00 0.00 24 1019.3
20260906044603 22 0 0.0 0.0 0.00 0.00 0.00 24 1019.3
20260906044503 22 0 0.0 0.0 0.00 0.00 0.00 24 1019.3
20260906044303 22 0 0.0 0.0 0.00 0.00 0.00 24 1019.3
20260906044204 22 0 0.0 0.0 0.00 0.00 0.00 24 1019.3
20260906044103 22 0 0.0 0.0 0.00 0.00 0.00 24 1019.3
20260906044003 22 0 0.0 0.0 0.00 0.00 0.00 24 1019.2
20260906043903 22 0 0.0 0.0 0.00 0.00 0.00 23 1019.2
20260906043803 22 0 0.0 0.0 0.00 0.00 0.00 24 1019.3
20260906043703 22 0 0.0 0.0 0.00 0.00 0.00 24 1019.3
20260906043603 22 0 0.0 0.0 0.00 0.00 0.00 23 1019.2
20260906043503 22 0 0.0 0.0 0.00 0.00 0.00 23 1019.2
20260906043403 22 0 0.0 0.0 0.00 0.00 0.00 24 1019.3
20260906043303 22 0 0.0 0.0 0.00 0.00 0.00 23 1019.2
20260906043104 22 0 0.0 0.0 0.00 0.00 0.00 23 1019.2
20260906042903 22 0 0.0 0.0 0.00 0.00 0.00 23 1019.2
20260906042802 22 0 0.0 0.0 0.00 0.00 0.00 23 1019.2
20260906042703 22 0 0.0 0.0 0.00 0.00 0.00 23 1019.3
20260906042603 22 0 0.0 0.0 0.00 0.00 0.00 23 1019.3
20260906042503 22 0 0.0 0.0 0.00 0.00 0.00 23 1019.3
20260906042403 22 0 0.0 0.0 0.00 0.00 0.00 23 1019.3
20260906042203 22 0 0.0 0.0 0.00 0.00 0.00 22 1019.2
20260906042104 22 0 0.0 0.0 0.00 0.00 0.00 23 1019.2
20260906041903 22 0 0.0 0.0 0.00 0.00 0.00 23 1019.3
20260906041803 22 0 0.0 0.0 0.00 0.00 0.00 22 1019.2
20260906041704 22 0 0.0 0.0 0.00 0.00 0.00 23 1019.3
20260906041603 22 0 0.0 0.0 0.00 0.00 0.00 22 1019.3
20260906041503 22 0 0.0 0.0 0.00 0.00 0.00 23 1019.2
20260906041303 22 0 0.0 0.0 0.00 0.00 0.00 22 1019.2
20260906041203 22 0 0.0 0.0 0.00 0.00 0.00 22 1019.2
20260906041103 22 0 0.0 0.0 0.00 0.00 0.00 22 1019.1
20260906041003 22 0 0.0 0.0 0.00 0.00 0.00 23 1019.2
20260906040903 22 0 0.0 0.0 0.00 0.00 0.00 22 1019.2
20260906040703 22 0 0.0 0.0 0.00 0.00 0.00 22 1019.1
20260906040603 22 0 0.0 0.0 0.00 0.00 0.00 22 1019.1
20260906040503 22 0 0.0 0.0 0.00 0.00 0.00 22 1019.2
20260906040403 22 0 0.0 0.0 0.00 0.00 0.00 22 1019.1
20260906040303 22 0 0.0 0.0 0.00 0.00 0.00 22 1019.1
20260906040203 22 0 0.0 0.0 0.00 0.00 0.00 22 1019.1
20260906040103 22 0 0.0 0.0 0.00 0.00 0.00 22 1019.1
20260906040003 22 0 0.0 0.0 0.00 0.00 0.00 22 1019.1
20260906035903 22 0 0.0 0.0 0.00 0.00 0.00 22 1019.1
20260906035703 22 0 0.0 0.0 0.00 0.00 0.00 22 1019.0
20260906035603 22 0 0.0 0.0 0.00 0.00 0.00 22 1019.1
20260906035503 22 0 0.0 0.0 0.00 0.00 0.00 22 1019.1
20260906035403 22 0 0.0 0.0 0.00 0.00 0.00 22 1019.1
20260906035306 22 0 0.0 0.0 0.00 0.00 0.00 22 1019.1
20260906035203 22 0 0.0 0.0 0.00 0.00 0.00 22 1019.1
20260906035103 22 0 0.0 0.0 0.00 0.00 0.00 22 1019.0
20260906035003 22 0 0.0 0.0 0.00 0.00 0.00 22 1019.1
20260906034903 22 0 0.0 0.0 0.00 0.00 0.00 21 1018.9
20260906034802 22 0 0.0 0.0 0.00 0.00 0.00 22 1019.0
20260906034503 22 0 0.0 0.0 0.00 0.00 0.00 22 1019.0
20260906034303 22 0 0.0 0.0 0.00 0.00 0.00 22 1019.0
20260906034203 22 0 0.0 0.0 0.00 0.00 0.00 21 1018.9
20260906034103 22 0 0.0 0.0 0.00 0.00 0.00 22 1019.0
20260906034004 22 0 0.0 0.0 0.00 0.00 0.00 21 1018.9
20260906033903 22 0 0.0 0.0 0.00 0.00 0.00 21 1018.9
20260906033803 22 0 0.0 0.0 0.00 0.00 0.00 22 1019.0
20260906033704 22 0 0.0 0.0 0.00 0.00 0.00 22 1019.0
20260906033603 22 0 0.0 0.0 0.00 0.00 0.00 22 1019.1
20260906033503 22 0 0.0 0.0 0.00 0.00 0.00 21 1019.0
20260906033402 22 0 0.0 0.0 0.00 0.00 0.00 21 1018.9
20260906033303 22 0 0.0 0.0 0.00 0.00 0.00 21 1018.9
20260906033203 22 0 0.0 0.0 0.00 0.00 0.00 21 1018.8
20260906033103 22 0 0.0 0.0 0.00 0.00 0.00 21 1018.9
20260906033004 22 0 0.0 0.0 0.00 0.00 0.00 21 1018.8
20260906032903 22 0 0.0 0.0 0.00 0.00 0.00 21 1018.8
20260906032803 23 0 0.0 0.0 0.00 0.00 0.00 21 1018.9
20260906032703 23 0 0.0 0.0 0.00 0.00 0.00 21 1018.9
20260906032604 23 0 0.0 0.0 0.00 0.00 0.00 21 1018.9
20260906032403 23 0 0.0 0.0 0.00 0.00 0.00 21 1018.9
20260906032305 23 0 0.0 0.0 0.00 0.00 0.00 21 1018.9
20260906032202 23 0 0.0 0.0 0.00 0.00 0.00 21 1018.8
20260906032003 23 0 0.0 0.0 0.00 0.00 0.00 21 1018.9
20260906031903 23 0 0.0 0.0 0.00 0.00 0.00 21 1018.8
20260906031803 23 0 0.0 0.0 0.00 0.00 0.00 21 1018.9
20260906031703 23 0 0.0 0.0 0.00 0.00 0.00 21 1018.8
20260906031503 23 0 0.0 0.0 0.00 0.00 0.00 21 1018.9
20260906031403 23 0 0.0 0.0 0.00 0.00 0.00 21 1018.8
20260906031303 23 0 0.0 0.0 0.00 0.00 0.00 21 1018.8
20260906031203 23 0 0.0 0.0 0.00 0.00 0.00 21 1018.7
20260906031103 23 0 0.0 0.0 0.00 0.00 0.00 20 1018.7
20260906030903 23 0 0.0 0.0 0.00 0.00 0.00 20 1018.6
20260906030804 23 0 0.0 4.8 0.00 0.00 0.00 20 1018.5
20260906030703 23 0 0.0 6.4 0.00 0.00 0.00 21 1018.6
20260906030603 23 0 0.0 6.4 0.00 0.00 0.00 21 1018.6
20260906030504 23 0 0.0 6.4 0.00 0.00 0.00 21 1018.7
20260906030403 23 0 0.0 6.4 0.00 0.00 0.00 21 1018.7
20260906030303 23 0 0.0 6.4 0.00 0.00 0.00 21 1018.6
20260906030203 23 0 0.0 6.4 0.00 0.00 0.00 21 1018.7
20260906030003 23 0 0.0 6.4 0.00 0.00 0.00 21 1018.6
20260906025903 23 0 0.0 6.4 0.00 0.00 0.00 21 1018.6
20260906025803 23 0 0.0 6.4 0.00 0.00 0.00 21 1018.6
20260906025703 23 0 0.0 1.6 0.00 0.00 0.00 21 1018.5
20260906025503 23 0 0.0 1.6 0.00 0.00 0.00 21 1018.5
20260906025403 23 0 0.0 0.0 0.00 0.00 0.00 21 1018.5
20260906025306 23 0 0.0 0.0 0.00 0.00 0.00 22 1018.6
20260906025103 23 0 0.0 0.0 0.00 0.00 0.00 22 1018.6
20260906025003 23 0 0.0 0.0 0.00 0.00 0.00 21 1018.5
20260906024903 23 0 0.0 0.0 0.00 0.00 0.00 21 1018.4
20260906024803 23 0 0.0 0.0 0.00 0.00 0.00 22 1018.5
20260906024703 23 0 0.0 0.0 0.00 0.00 0.00 21 1018.5
20260906024603 23 0 0.0 0.0 0.00 0.00 0.00 22 1018.4
20260906024403 23 0 0.0 0.0 0.00 0.00 0.00 22 1018.3
20260906024303 23 0 0.0 0.0 0.00 0.00 0.00 22 1018.4
20260906024203 23 0 0.0 0.0 0.00 0.00 0.00 22 1018.3
20260906024103 22 0 0.0 0.0 0.00 0.00 0.00 23 1018.4
20260906023903 22 0 0.0 0.0 0.00 0.00 0.00 23 1018.4
20260906023803 22 0 0.0 0.0 0.00 0.00 0.00 23 1018.4
20260906023703 22 0 0.0 0.0 0.00 0.00 0.00 24 1018.3
20260906023603 22 0 0.0 0.0 0.00 0.00 0.00 24 1018.3
20260906023503 22 0 0.0 0.0 0.00 0.00 0.00 24 1018.3
20260906023403 22 0 0.0 0.0 0.00 0.00 0.00 25 1018.2
20260906023303 22 0 0.0 0.0 0.00 0.00 0.00 25 1018.2
20260906022903 22 0 0.0 0.0 0.00 0.00 0.00 26 1018.1
20260906022803 22 0 0.0 0.0 0.00 0.00 0.00 26 1018.1
20260906022703 22 0 0.0 0.0 0.00 0.00 0.00 26 1018.1
20260906022503 22 0 0.0 0.0 0.00 0.00 0.00 26 1018.2
20260906022306 22 0 0.0 0.0 0.00 0.00 0.00 26 1018.2
20260906022203 23 0 0.0 0.0 0.00 0.00 0.00 25 1018.1
20260906022103 23 0 0.0 0.0 0.00 0.00 0.00 25 1018.1
20260906022004 23 0 0.0 0.0 0.00 0.00 0.00 24 1018.1
20260906021903 23 0 0.0 0.0 0.00 0.00 0.00 25 1018.1
20260906021803 23 0 0.0 0.0 0.00 0.00 0.00 24 1018.1
20260906021703 23 0 1.6 0.0 0.00 0.00 0.00 24 1018.1
20260906021603 24 172 1.6 3.2 0.00 0.00 0.00 23 1018.0
20260906021503 24 172 1.6 3.2 0.00 0.00 0.00 22 1018.1
20260906021303 24 171 1.6 3.2 0.00 0.00 0.00 22 1018.0
20260906021203 25 174 3.2 3.2 0.00 0.00 0.00 22 1018.0
20260906021003 25 178 3.2 14.5 0.00 0.00 0.00 21 1018.1
20260906020903 25 179 3.2 14.5 0.00 0.00 0.00 21 1018.0
20260906020703 25 178 1.6 14.5 0.00 0.00 0.00 20 1018.1
20260906020603 25 179 1.6 14.5 0.00 0.00 0.00 20 1018.1
20260906020503 25 179 1.6 14.5 0.00 0.00 0.00 20 1018.1
20260906020403 25 179 1.6 14.5 0.00 0.00 0.00 20 1018.0
20260906020203 25 179 0.0 14.5 0.00 0.00 0.00 20 1018.0
20260906020003 25 179 0.0 11.3 0.00 0.00 0.00 20 1018.0
20260906015903 25 0 0.0 11.3 0.00 0.00 0.00 20 1018.1
20260906015803 25 0 0.0 11.3 0.00 0.00 0.00 20 1018.1
20260906015503 25 0 0.0 0.0 0.00 0.00 0.00 21 1018.0
20260906015403 25 0 0.0 0.0 0.00 0.00 0.00 22 1018.0
20260906015306 25 0 0.0 0.0 0.00 0.00 0.00 21 1018.0
20260906015203 25 0 0.0 0.0 0.00 0.00 0.00 22 1018.0
20260906015003 25 0 0.0 0.0 0.00 0.00 0.00 23 1018.1
20260906014904 25 0 0.0 0.0 0.00 0.00 0.00 22 1018.0
20260906014803 25 0 0.0 0.0 0.00 0.00 0.00 22 1018.0
20260906014703 25 0 0.0 0.0 0.00 0.00 0.00 23 1018.0
20260906014603 25 0 0.0 0.0 0.00 0.00 0.00 23 1018.0
20260906014503 25 0 0.0 0.0 0.00 0.00 0.00 24 1018.0
20260906014403 25 0 0.0 0.0 0.00 0.00 0.00 24 1018.0
20260906014303 25 0 0.0 0.0 0.00 0.00 0.00 24 1018.0
20260906014203 25 0 0.0 0.0 0.00 0.00 0.00 24 1018.0
20260906014103 25 0 0.0 0.0 0.00 0.00 0.00 24 1018.0
20260906014003 25 0 0.0 0.0 0.00 0.00 0.00 24 1018.0
20260906013904 25 0 0.0 0.0 0.00 0.00 0.00 24 1018.0
20260906013803 25 0 0.0 0.0 0.00 0.00 0.00 24 1018.0
20260906013703 25 0 0.0 0.0 0.00 0.00 0.00 24 1018.0
20260906013603 25 0 0.0 0.0 0.00 0.00 0.00 24 1018.0
20260906013503 25 0 0.0 0.0 0.00 0.00 0.00 24 1018.0
20260906013403 25 0 0.0 0.0 0.00 0.00 0.00 24 1018.0
20260906013303 25 0 0.0 0.0 0.00 0.00 0.00 24 1018.0
20260906013103 25 0 0.0 0.0 0.00 0.00 0.00 24 1017.9
20260906013003 25 0 0.0 0.0 0.00 0.00 0.00 24 1018.0
20260906012903 25 0 0.0 0.0 0.00 0.00 0.00 24 1017.9
20260906012803 25 0 0.0 0.0 0.00 0.00 0.00 24 1018.0
20260906012703 25 0 0.0 0.0 0.00 0.00 0.00 24 1018.0
20260906012603 25 0 0.0 0.0 0.00 0.00 0.00 24 1018.0
20260906012403 25 0 0.0 0.0 0.00 0.00 0.00 24 1018.0
20260906012306 25 0 0.0 0.0 0.00 0.00 0.00 24 1018.0
20260906012103 25 0 0.0 0.0 0.00 0.00 0.00 24 1018.0
20260906012003 25 0 0.0 0.0 0.00 0.00 0.00 24 1018.0
20260906011903 25 0 0.0 0.0 0.00 0.00 0.00 24 1018.1
20260906011803 25 0 0.0 0.0 0.00 0.00 0.00 24 1018.1
20260906011704 25 0 0.0 0.0 0.00 0.00 0.00 24 1018.0
20260906011603 25 0 0.0 0.0 0.00 0.00 0.00 24 1018.0
20260906011503 25 0 0.0 0.0 0.00 0.00 0.00 24 1018.1
20260906011403 26 0 0.0 0.0 0.00 0.00 0.00 25 1018.2
20260906011103 26 0 0.0 0.0 0.00 0.00 0.00 25 1018.2
20260906011003 26 0 0.0 0.0 0.00 0.00 0.00 25 1018.2
20260906010803 26 0 0.0 0.0 0.00 0.00 0.00 25 1018.2
20260906010503 26 0 0.0 0.0 0.00 0.00 0.00 25 1018.3
20260906010403 26 0 0.0 0.0 0.00 0.00 0.00 24 1018.2
20260906010303 26 0 0.0 0.0 0.00 0.00 0.00 24 1018.2
20260906010203 26 0 0.0 9.7 0.00 0.00 0.00 24 1018.2
20260906005903 26 0 0.0 9.7 0.00 0.00 0.00 24 1018.3
20260906005603 26 0 0.0 9.7 0.00 0.00 0.00 24 1018.3
20260906005503 26 0 0.0 9.7 0.00 0.00 0.00 24 1018.2
20260906005404 26 0 0.0 9.7 0.00 0.00 0.00 24 1018.2
20260906005306 26 0 0.0 9.7 0.00 0.00 0.00 24 1018.2
20260906005203 26 0 0.0 0.0 0.00 0.00 0.00 24 1018.2
20260906005104 26 0 0.0 3.2 0.00 0.00 0.00 24 1018.2
20260906005003 27 0 0.0 6.4 0.00 0.00 0.00 24 1018.3
20260906004903 27 0 0.0 6.4 0.00 0.00 0.00 24 1018.3
20260906004803 27 0 0.0 6.4 0.00 0.00 0.00 24 1018.3
20260906004703 27 0 0.0 6.4 0.00 0.00 0.00 24 1018.3
20260906004503 27 0 0.0 6.4 0.00 0.00 0.00 24 1018.2
20260906004304 27 0 0.0 6.4 0.00 0.00 0.00 24 1018.3
20260906004103 27 0 0.0 6.4 0.00 0.00 0.00 24 1018.3
20260906003903 27 0 0.0 4.8 0.00 0.00 0.00 23 1018.3
20260906003803 27 0 0.0 3.2 0.00 0.00 0.00 23 1018.3
20260906003503 27 0 0.0 3.2 0.00 0.00 0.00 24 1018.2
20260906003304 27 0 0.0 3.2 0.00 0.00 0.00 24 1018.2
20260906003203 27 0 0.0 3.2 0.00 0.00 0.00 24 1018.2
20260906003003 27 0 0.0 3.2 0.00 0.00 0.00 24 1018.2
20260906002903 27 0 0.0 3.2 0.00 0.00 0.00 23 1018.3
20260906002803 27 0 0.0 3.2 0.00 0.00 0.00 23 1018.3
20260906002703 27 0 0.0 3.2 0.00 0.00 0.00 23 1018.4
20260906002604 27 0 0.0 3.2 0.00 0.00 0.00 23 1018.3
20260906002503 27 0 0.0 1.6 0.00 0.00 0.00 23 1018.3
20260906002403 27 0 0.0 1.6 0.00 0.00 0.00 23 1018.4
20260906002305 27 0 0.0 3.2 0.00 0.00 0.00 23 1018.4
20260906002203 27 0 0.0 3.2 0.00 0.00 0.00 23 1018.4
20260906002003 27 0 0.0 3.2 0.00 0.00 0.00 23 1018.4
20260906001903 27 0 0.0 3.2 0.00 0.00 0.00 23 1018.4
20260906001803 27 154 0.0 3.2 0.00 0.00 0.00 23 1018.4
20260906001703 27 154 0.0 3.2 0.00 0.00 0.00 23 1018.4
20260906001603 27 154 0.0 3.2 0.00 0.00 0.00 23 1018.4
20260906001503 27 154 0.0 3.2 0.00 0.00 0.00 23 1018.4
20260906001204 27 168 1.6 3.2 0.00 0.00 0.00 23 1018.4
20260906001103 27 182 1.6 1.6 0.00 0.00 0.00 23 1018.4
20260906001003 27 204 1.6 1.6 0.00 0.00 0.00 23 1018.4
20260906000903 27 184 3.2 1.6 0.00 0.00 0.00 23 1018.4
20260906000803 27 176 3.2 4.8 0.00 0.00 0.00 23 1018.4
20260906000703 27 181 3.2 14.5 0.00 0.00 0.00 23 1018.4
20260906000603 27 181 3.2 14.5 0.00 0.00 0.00 23 1018.4
20260906000503 27 191 4.8 17.7 0.00 0.00 0.00 23 1018.4
20260906000403 27 188 4.8 17.7 0.00 0.00 0.00 23 1018.4
20260906000303 27 185 3.2 17.7 0.00 0.00 0.00 23 1018.4
20260906000103 27 184 3.2 17.7 0.00 0.00 0.00 23 1018.4
20260906000003 27 184 3.2 17.7 0.00 0.00 0.00 23 1018.4
20260905235904 27 184 3.2 17.7 0.00 0.00 0.00 23 1018.3
20260905235803 27 184 1.6 17.7 0.00 0.00 0.00 23 1018.3
20260905235703 27 187 1.6 17.7 0.00 0.00 0.00 23 1018.3
20260905235603 27 187 1.6 17.7 0.00 0.00 0.00 23 1018.4
20260905235403 28 183 1.6 14.5 0.00 0.00 0.00 23 1018.4
20260905235306 28 188 1.6 14.5 0.00 0.00 0.00 23 1018.4
20260905235204 28 194 1.6 11.3 0.00 0.00 0.00 23 1018.4
20260905235103 28 200 1.6 11.3 0.00 0.00 0.00 22 1018.2
20260905234904 28 224 3.2 11.3 0.00 0.00 0.00 22 1018.3
20260905234803 28 181 3.2 11.3 0.00 0.00 0.00 22 1018.3
20260905234703 28 188 3.2 9.7 0.00 0.00 0.00 22 1018.3
20260905234604 28 203 4.8 12.9 0.00 0.00 0.00 22 1018.3
20260905234503 28 208 4.8 12.9 0.00 0.00 0.00 22 1018.3
20260905234403 28 207 4.8 12.9 0.00 0.00 0.00 23 1018.4
20260905234303 28 193 4.8 12.9 0.00 0.00 0.00 23 1018.4
20260905234203 27 193 6.4 12.9 0.00 0.00 0.00 23 1018.4
20260905234103 27 191 4.8 16.1 0.00 0.00 0.00 23 1018.4
20260905234004 27 191 4.8 16.1 0.00 0.00 0.00 23 1018.4
20260905233903 27 194 4.8 16.1 0.00 0.00 0.00 22 1018.3
20260905233803 27 198 4.8 16.1 0.00 0.00 0.00 23 1018.4
20260905233704 27 194 4.8 16.1 0.00 0.00 0.00 23 1018.4
20260905233603 27 188 3.2 16.1 0.00 0.00 0.00 23 1018.3
20260905233503 27 183 3.2 16.1 0.00 0.00 0.00 22 1018.3
20260905233403 27 183 1.6 16.1 0.00 0.00 0.00 22 1018.3
20260905233303 28 186 1.6 16.1 0.00 0.00 0.00 22 1018.4
20260905233203 28 183 1.6 16.1 0.00 0.00 0.00 22 1018.3
20260905233104 28 183 1.6 16.1 0.00 0.00 0.00 22 1018.3
20260905232903 28 174 0.0 16.1 0.00 0.00 0.00 22 1018.3
20260905232804 28 157 0.0 9.7 0.00 0.00 0.00 22 1018.3
20260905232603 28 155 1.6 9.7 0.00 0.00 0.00 22 1018.3
20260905232503 28 160 1.6 11.3 0.00 0.00 0.00 22 1018.4
20260905232403 28 151 3.2 11.3 0.00 0.00 0.00 22 1018.4
20260905232305 28 178 3.2 11.3 0.00 0.00 0.00 22 1018.4
20260905232203 28 240 3.2 14.5 0.00 0.00 0.00 22 1018.4
20260905231903 28 237 4.8 14.5 0.00 0.00 0.00 23 1018.4
20260905231803 28 198 6.4 19.3 0.00 0.00 0.00 23 1018.4
20260905231703 28 186 6.4 22.5 0.00 0.00 0.00 23 1018.4
20260905231504 28 179 6.4 25.7 0.00 0.00 0.00 23 1018.4
20260905231303 28 177 6.4 25.7 0.00 0.00 0.00 23 1018.4